Wetterdaten: Freitag, 20.02.2015
Datum Zeit Temp. Aussen +5cm Feuchte Auss Luftdruck Regen Sonnenschein Regendauer Solar Windben
20.02.2015 00:00 1,6 C 0,6 C 87 % 1020,1 hPa 0,0 l/m 0 min 0 min 0 W/m 18,8 km/h (3 Bft)
20.02.2015 00:02 1,6 C 0,6 C 87 % 1020,1 hPa 0,0 l/m 0 min 0 min 0 W/m 20,9 km/h (4 Bft)
20.02.2015 00:06 1,5 C 0,6 C 87 % 1020,0 hPa 0,0 l/m 0 min 0 min 0 W/m 18,8 km/h (3 Bft)
20.02.2015 00:08 1,5 C 0,6 C 87 % 1020,0 hPa 0,0 l/m 0 min 0 min 0 W/m 14,6 km/h (3 Bft)
20.02.2015 00:10 1,5 C 0,6 C 87 % 1020,0 hPa 0,0 l/m 0 min 0 min 0 W/m 16,7 km/h (3 Bft)
20.02.2015 00:12 1,4 C 0,6 C 87 % 1019,9 hPa 0,0 l/m 0 min 0 min 0 W/m 16,7 km/h (3 Bft)
20.02.2015 00:14 1,4 C 0,6 C 87 % 1019,9 hPa 0,0 l/m 0 min 0 min 0 W/m 12,6 km/h (3 Bft)
20.02.2015 00:16 1,4 C 0,6 C 87 % 1019,9 hPa 0,0 l/m 0 min 0 min 0 W/m 14,6 km/h (3 Bft)
20.02.2015 00:18 1,4 C 0,6 C 87 % 1019,8 hPa 0,0 l/m 0 min 0 min 0 W/m 18,8 km/h (3 Bft)
20.02.2015 00:20 1,4 C 0,6 C 87 % 1019,8 hPa 0,0 l/m 0 min 0 min 0 W/m 18,8 km/h (3 Bft)
20.02.2015 00:22 1,4 C 0,6 C 87 % 1019,7 hPa 0,0 l/m 0 min 0 min 0 W/m 12,6 km/h (3 Bft)
20.02.2015 00:24 1,4 C 0,6 C 87 % 1019,6 hPa 0,0 l/m 0 min 0 min 0 W/m 16,7 km/h (3 Bft)
20.02.2015 00:26 1,3 C 0,6 C 87 % 1019,6 hPa 0,0 l/m 0 min 0 min 0 W/m 18,8 km/h (3 Bft)
20.02.2015 00:28 1,3 C 0,6 C 88 % 1019,6 hPa 0,0 l/m 0 min 0 min 0 W/m 16,7 km/h (3 Bft)
20.02.2015 00:30 1,3 C 0,6 C 88 % 1019,6 hPa 0,0 l/m 0 min 0 min 0 W/m 12,6 km/h (3 Bft)
20.02.2015 00:32 1,3 C 0,6 C 88 % 1019,5 hPa 0,0 l/m 0 min 0 min 0 W/m 18,8 km/h (3 Bft)
20.02.2015 00:34 1,3 C 0,6 C 88 % 1019,4 hPa 0,0 l/m 0 min 0 min 0 W/m 14,6 km/h (3 Bft)
20.02.2015 00:36 1,3 C 0,6 C 88 % 1019,4 hPa 0,0 l/m 0 min 0 min 0 W/m 14,6 km/h (3 Bft)
20.02.2015 00:38 1,3 C 0,6 C 88 % 1019,3 hPa 0,0 l/m 0 min 0 min 0 W/m 14,6 km/h (3 Bft)
20.02.2015 00:40 1,3 C 0,6 C 88 % 1019,3 hPa 0,0 l/m 0 min 0 min 0 W/m 12,6 km/h (3 Bft)
20.02.2015 00:42 1,3 C 0,6 C 88 % 1019,2 hPa 0,0 l/m 0 min 0 min 0 W/m 14,6 km/h (3 Bft)
20.02.2015 00:44 1,3 C 0,6 C 88 % 1019,2 hPa 0,0 l/m 0 min 0 min 0 W/m 16,7 km/h (3 Bft)
20.02.2015 00:46 1,3 C 0,6 C 88 % 1019,1 hPa 0,0 l/m 0 min 0 min 0 W/m 18,8 km/h (3 Bft)
20.02.2015 00:48 1,3 C 0,6 C 88 % 1019,1 hPa 0,0 l/m 0 min 0 min 0 W/m 12,6 km/h (3 Bft)
20.02.2015 00:50 1,3 C 0,6 C 88 % 1019,2 hPa 0,0 l/m 0 min 0 min 0 W/m 14,6 km/h (3 Bft)
20.02.2015 00:52 1,3 C 0,6 C 88 % 1019,1 hPa 0,0 l/m 0 min 0 min 0 W/m 14,6 km/h (3 Bft)
20.02.2015 00:54 1,3 C 0,6 C 88 % 1019,1 hPa 0,0 l/m 0 min 0 min 0 W/m 14,6 km/h (3 Bft)
20.02.2015 00:56 1,3 C 0,6 C 88 % 1019,1 hPa 0,0 l/m 0 min 0 min 0 W/m 12,6 km/h (3 Bft)
20.02.2015 00:58 1,3 C 0,6 C 88 % 1019,1 hPa 0,0 l/m 0 min 0 min 0 W/m 18,8 km/h (3 Bft)
20.02.2015 01:00 1,4 C 0,6 C 88 % 1019,1 hPa 0,0 l/m 0 min 0 min 0 W/m 14,6 km/h (3 Bft)
20.02.2015 01:02 1,4 C 0,6 C 88 % 1019,1 hPa 0,0 l/m 0 min 0 min 0 W/m 14,6 km/h (3 Bft)
20.02.2015 01:04 1,4 C 0,6 C 88 % 1019,0 hPa 0,0 l/m 0 min 0 min 0 W/m 20,9 km/h (4 Bft)
20.02.2015 01:06 1,4 C 0,6 C 88 % 1019,0 hPa 0,0 l/m 0 min 0 min 0 W/m 20,9 km/h (4 Bft)
20.02.2015 01:08 1,4 C 0,6 C 88 % 1019,0 hPa 0,0 l/m 0 min 0 min 0 W/m 18,8 km/h (3 Bft)
20.02.2015 01:10 1,4 C 0,6 C 88 % 1019,0 hPa 0,0 l/m 0 min 0 min 0 W/m 12,6 km/h (3 Bft)
20.02.2015 01:12 1,4 C 0,6 C 88 % 1019,0 hPa 0,0 l/m 0 min 0 min 0 W/m 16,7 km/h (3 Bft)
20.02.2015 01:14 1,4 C 0,6 C 88 % 1019,0 hPa 0,0 l/m 0 min 0 min 0 W/m 18,8 km/h (3 Bft)
20.02.2015 01:16 1,5 C 0,6 C 89 % 1018,9 hPa 0,0 l/m 0 min 0 min 0 W/m 14,6 km/h (3 Bft)
20.02.2015 01:18 1,5 C 0,6 C 89 % 1018,8 hPa 0,0 l/m 0 min 0 min 0 W/m 18,8 km/h (3 Bft)
20.02.2015 01:20 1,5 C 0,6 C 89 % 1018,8 hPa 0,0 l/m 0 min 0 min 0 W/m 16,7 km/h (3 Bft)
20.02.2015 01:22 1,6 C 0,6 C 89 % 1018,8 hPa 0,0 l/m 0 min 0 min 0 W/m 16,7 km/h (3 Bft)
20.02.2015 01:24 1,6 C 1,1 C 89 % 1018,8 hPa 0,0 l/m 0 min 0 min 0 W/m 16,7 km/h (3 Bft)
20.02.2015 01:26 1,6 C 1,1 C 89 % 1018,8 hPa 0,0 l/m 0 min 0 min 0 W/m 14,6 km/h (3 Bft)
20.02.2015 01:28 1,6 C 1,1 C 89 % 1018,7 hPa 0,0 l/m 0 min 0 min 0 W/m 14,6 km/h (3 Bft)
20.02.2015 01:30 1,6 C 1,1 C 89 % 1018,7 hPa 0,0 l/m 0 min 0 min 0 W/m 18,8 km/h (3 Bft)
20.02.2015 01:32 1,7 C 1,1 C 88 % 1018,6 hPa 0,0 l/m 0 min 0 min 0 W/m 16,7 km/h (3 Bft)
20.02.2015 01:34 1,7 C 1,1 C 88 % 1018,6 hPa 0,0 l/m 0 min 0 min 0 W/m 16,7 km/h (3 Bft)
20.02.2015 01:36 1,7 C 1,1 C 88 % 1018,6 hPa 0,0 l/m 0 min 0 min 0 W/m 14,6 km/h (3 Bft)
20.02.2015 01:38 1,7 C 1,1 C 88 % 1018,6 hPa 0,0 l/m 0 min 0 min 0 W/m 14,6 km/h (3 Bft)
20.02.2015 01:40 1,7 C 1,1 C 88 % 1018,6 hPa 0,0 l/m 0 min 0 min 0 W/m 14,6 km/h (3 Bft)
20.02.2015 01:42 1,7 C 1,1 C 88 % 1018,6 hPa 0,0 l/m 0 min 0 min 0 W/m 18,8 km/h (3 Bft)
20.02.2015 01:44 1,8 C 0,6 C 88 % 1018,5 hPa 0,0 l/m 0 min 0 min 0 W/m 10,5 km/h (2 Bft)
20.02.2015 01:46 1,8 C 0,6 C 88 % 1018,5 hPa 0,0 l/m 0 min 0 min 0 W/m 16,7 km/h (3 Bft)
20.02.2015 01:48 1,8 C 0,6 C 88 % 1018,4 hPa 0,0 l/m 0 min 0 min 0 W/m 14,6 km/h (3 Bft)
20.02.2015 01:50 1,8 C 0,6 C 88 % 1018,4 hPa 0,0 l/m 0 min 0 min 0 W/m 10,5 km/h (2 Bft)
20.02.2015 01:52 1,8 C 0,6 C 88 % 1018,3 hPa 0,0 l/m 0 min 0 min 0 W/m 10,5 km/h (2 Bft)
20.02.2015 01:54 1,8 C 0,6 C 88 % 1018,3 hPa 0,0 l/m 0 min 0 min 0 W/m 12,6 km/h (3 Bft)
20.02.2015 01:56 1,8 C 0,6 C 88 % 1018,3 hPa 0,0 l/m 0 min 0 min 0 W/m 10,5 km/h (2 Bft)
20.02.2015 01:58 1,8 C 0,6 C 88 % 1018,2 hPa 0,0 l/m 0 min 0 min 0 W/m 12,6 km/h (3 Bft)
20.02.2015 02:00 1,8 C 0,6 C 88 % 1018,2 hPa 0,0 l/m 0 min 0 min 0 W/m 12,6 km/h (3 Bft)
20.02.2015 02:02 1,8 C 0,6 C 88 % 1018,2 hPa 0,0 l/m 0 min 0 min 0 W/m 10,5 km/h (2 Bft)
20.02.2015 02:04 1,8 C 0,6 C 88 % 1018,2 hPa 0,0 l/m 0 min 0 min 0 W/m 12,6 km/h (3 Bft)
20.02.2015 02:06 1,8 C 0,6 C 88 % 1018,2 hPa 0,0 l/m 0 min 0 min 0 W/m 14,6 km/h (3 Bft)
20.02.2015 02:08 1,8 C 0,6 C 88 % 1018,2 hPa 0,0 l/m 0 min 0 min 0 W/m 16,7 km/h (3 Bft)
20.02.2015 02:10 1,8 C 1,1 C 88 % 1018,2 hPa 0,0 l/m 0 min 0 min 0 W/m 16,7 km/h (3 Bft)
20.02.2015 02:12 1,8 C 1,1 C 88 % 1018,1 hPa 0,0 l/m 0 min 0 min 0 W/m 12,6 km/h (3 Bft)
20.02.2015 02:14 1,9 C 1,1 C 88 % 1018,0 hPa 0,0 l/m 0 min 0 min 0 W/m 10,5 km/h (2 Bft)
20.02.2015 02:16 1,9 C 1,1 C 88 % 1018,0 hPa 0,0 l/m 0 min 0 min 0 W/m 14,6 km/h (3 Bft)
20.02.2015 02:18 1,9 C 1,1 C 88 % 1018,0 hPa 0,0 l/m 0 min 0 min 0 W/m 18,8 km/h (3 Bft)
20.02.2015 02:20 1,9 C 1,1 C 88 % 1017,9 hPa 0,0 l/m 0 min 0 min 0 W/m 14,6 km/h (3 Bft)
20.02.2015 02:22 1,9 C 1,1 C 88 % 1017,9 hPa 0,0 l/m 0 min 0 min 0 W/m 14,6 km/h (3 Bft)
20.02.2015 02:24 1,9 C 1,1 C 88 % 1017,8 hPa 0,0 l/m 0 min 0 min 0 W/m 12,6 km/h (3 Bft)
20.02.2015 02:26 2,0 C 1,1 C 88 % 1017,8 hPa 0,0 l/m 0 min 0 min 0 W/m 12,6 km/h (3 Bft)
20.02.2015 02:28 2,0 C 1,1 C 88 % 1017,7 hPa 0,0 l/m 0 min 0 min 0 W/m 16,7 km/h (3 Bft)
20.02.2015 02:30 2,0 C 1,1 C 88 % 1017,7 hPa 0,0 l/m 0 min 0 min 0 W/m 14,6 km/h (3 Bft)
20.02.2015 02:32 2,1 C 1,1 C 89 % 1017,6 hPa 0,0 l/m 0 min 0 min 0 W/m 23,0 km/h (4 Bft)
20.02.2015 02:34 2,1 C 1,1 C 89 % 1017,6 hPa 0,0 l/m 0 min 0 min 0 W/m 12,6 km/h (3 Bft)
20.02.2015 02:36 2,1 C 1,1 C 89 % 1017,5 hPa 0,0 l/m 0 min 0 min 0 W/m 14,6 km/h (3 Bft)
20.02.2015 02:38 2,1 C 1,1 C 89 % 1017,5 hPa 0,0 l/m 0 min 0 min 0 W/m 25,1 km/h (4 Bft)
20.02.2015 02:40 2,2 C 1,1 C 89 % 1017,4 hPa 0,0 l/m 0 min 0 min 0 W/m 12,6 km/h (3 Bft)
20.02.2015 02:42 2,2 C 1,1 C 89 % 1017,4 hPa 0,0 l/m 0 min 0 min 0 W/m 10,5 km/h (2 Bft)
20.02.2015 02:44 2,2 C 1,1 C 89 % 1017,4 hPa 0,0 l/m 0 min 0 min 0 W/m 23,0 km/h (4 Bft)
20.02.2015 02:46 2,3 C 1,1 C 89 % 1017,3 hPa 0,0 l/m 0 min 0 min 0 W/m 20,9 km/h (4 Bft)
20.02.2015 02:48 2,3 C 1,1 C 89 % 1017,3 hPa 0,0 l/m 0 min 0 min 0 W/m 14,6 km/h (3 Bft)
20.02.2015 02:50 2,3 C 1,1 C 89 % 1017,3 hPa 0,0 l/m 0 min 0 min 0 W/m 14,6 km/h (3 Bft)
20.02.2015 02:52 2,4 C 1,7 C 89 % 1017,3 hPa 0,0 l/m 0 min 0 min 0 W/m 25,1 km/h (4 Bft)
20.02.2015 02:54 2,4 C 1,7 C 89 % 1017,2 hPa 0,0 l/m 0 min 0 min 0 W/m 16,7 km/h (3 Bft)
20.02.2015 02:56 2,4 C 1,7 C 88 % 1017,2 hPa 0,0 l/m 0 min 0 min 0 W/m 18,8 km/h (3 Bft)
20.02.2015 02:58 2,4 C 1,1 C 88 % 1017,1 hPa 0,0 l/m 0 min 0 min 0 W/m 16,7 km/h (3 Bft)
20.02.2015 03:00 2,4 C 1,1 C 88 % 1017,1 hPa 0,0 l/m 0 min 0 min 0 W/m 18,8 km/h (3 Bft)
20.02.2015 03:02 2,5 C 1,1 C 88 % 1017,0 hPa 0,0 l/m 0 min 0 min 0 W/m 14,6 km/h (3 Bft)
20.02.2015 03:04 2,5 C 1,1 C 88 % 1017,0 hPa 0,0 l/m 0 min 0 min 0 W/m 16,7 km/h (3 Bft)
20.02.2015 03:06 2,5 C 1,1 C 88 % 1016,9 hPa 0,0 l/m 0 min 0 min 0 W/m 14,6 km/h (3 Bft)
20.02.2015 03:08 2,5 C 1,1 C 88 % 1016,8 hPa 0,0 l/m 0 min 0 min 0 W/m 18,8 km/h (3 Bft)
20.02.2015 03:10 2,5 C 1,1 C 88 % 1016,7 hPa 0,0 l/m 0 min 0 min 0 W/m 16,7 km/h (3 Bft)
20.02.2015 03:12 2,5 C 1,1 C 88 % 1016,8 hPa 0,0 l/m 0 min 0 min 0 W/m 14,6 km/h (3 Bft)
20.02.2015 03:14 2,6 C 1,1 C 88 % 1016,7 hPa 0,0 l/m 0 min 0 min 0 W/m 16,7 km/h (3 Bft)
20.02.2015 03:16 2,6 C 1,1 C 87 % 1016,6 hPa 0,0 l/m 0 min 0 min 0 W/m 18,8 km/h (3 Bft)
20.02.2015 03:18 2,6 C 1,1 C 87 % 1016,7 hPa 0,0 l/m 0 min 0 min 0 W/m 16,7 km/h (3 Bft)
20.02.2015 03:20 2,6 C 1,1 C 87 % 1016,6 hPa 0,0 l/m 0 min 0 min 0 W/m 20,9 km/h (4 Bft)
20.02.2015 03:22 2,6 C 1,1 C 87 % 1016,6 hPa 0,0 l/m 0 min 0 min 0 W/m 16,7 km/h (3 Bft)
20.02.2015 03:24 2,6 C 1,7 C 87 % 1016,6 hPa 0,0 l/m 0 min 0 min 0 W/m 14,6 km/h (3 Bft)
20.02.2015 03:26 2,6 C 1,7 C 87 % 1016,5 hPa 0,0 l/m 0 min 0 min 0 W/m 20,9 km/h (4 Bft)
20.02.2015 03:28 2,6 C 1,7 C 87 % 1016,5 hPa 0,0 l/m 0 min 0 min 0 W/m 27,2 km/h (4 Bft)
20.02.2015 03:30 2,6 C 1,7 C 87 % 1016,5 hPa 0,0 l/m 0 min 0 min 0 W/m 23,0 km/h (4 Bft)
20.02.2015 03:32 2,7 C 1,7 C 87 % 1016,4 hPa 0,0 l/m 0 min 0 min 0 W/m 23,0 km/h (4 Bft)
20.02.2015 03:34 2,7 C 2,2 C 87 % 1016,3 hPa 0,0 l/m 0 min 0 min 0 W/m 23,0 km/h (4 Bft)
20.02.2015 03:36 2,7 C 2,2 C 87 % 1016,4 hPa 0,0 l/m 0 min 0 min 0 W/m 20,9 km/h (4 Bft)
20.02.2015 03:38 2,8 C 2,2 C 87 % 1016,4 hPa 0,0 l/m 0 min 0 min 0 W/m 23,0 km/h (4 Bft)
20.02.2015 03:40 2,8 C 2,2 C 87 % 1016,2 hPa 0,0 l/m 0 min 0 min 0 W/m 18,8 km/h (3 Bft)
20.02.2015 03:42 2,9 C 2,2 C 87 % 1016,2 hPa 0,0 l/m 0 min 0 min 0 W/m 18,8 km/h (3 Bft)
20.02.2015 03:44 2,9 C 2,2 C 86 % 1016,1 hPa 0,0 l/m 0 min 0 min 0 W/m 23,0 km/h (4 Bft)
20.02.2015 03:46 3,0 C 2,2 C 86 % 1016,1 hPa 0,0 l/m 0 min 0 min 0 W/m 20,9 km/h (4 Bft)
20.02.2015 03:48 3,0 C 2,2 C 86 % 1016,0 hPa 0,0 l/m 0 min 0 min 0 W/m 16,7 km/h (3 Bft)
20.02.2015 03:50 3,1 C 2,2 C 86 % 1016,0 hPa 0,0 l/m 0 min 0 min 0 W/m 20,9 km/h (4 Bft)
20.02.2015 03:52 3,1 C 2,2 C 86 % 1015,9 hPa 0,0 l/m 0 min 0 min 0 W/m 27,2 km/h (4 Bft)
20.02.2015 03:54 3,2 C 2,2 C 85 % 1015,9 hPa 0,0 l/m 0 min 0 min 0 W/m 20,9 km/h (4 Bft)
20.02.2015 03:56 3,2 C 2,2 C 85 % 1015,8 hPa 0,0 l/m 0 min 0 min 0 W/m 25,1 km/h (4 Bft)
20.02.2015 03:58 3,2 C 2,2 C 85 % 1015,8 hPa 0,0 l/m 0 min 0 min 0 W/m 16,7 km/h (3 Bft)
20.02.2015 04:00 3,3 C 2,2 C 85 % 1015,8 hPa 0,0 l/m 0 min 0 min 0 W/m 31,4 km/h (5 Bft)
20.02.2015 04:02 3,3 C 2,2 C 85 % 1015,7 hPa 0,0 l/m 0 min 0 min 0 W/m 18,8 km/h (3 Bft)
20.02.2015 04:04 3,3 C 2,2 C 84 % 1015,8 hPa 0,0 l/m 0 min 0 min 0 W/m 23,0 km/h (4 Bft)
20.02.2015 04:06 3,4 C 2,2 C 84 % 1015,7 hPa 0,0 l/m 0 min 0 min 0 W/m 31,4 km/h (5 Bft)
20.02.2015 04:08 3,4 C 2,2 C 84 % 1015,7 hPa 0,0 l/m 0 min 0 min 0 W/m 29,3 km/h (5 Bft)
20.02.2015 04:10 3,4 C 2,2 C 84 % 1015,6 hPa 0,0 l/m 0 min 0 min 0 W/m 29,3 km/h (5 Bft)
20.02.2015 04:12 3,5 C 2,2 C 83 % 1015,6 hPa 0,0 l/m 0 min 0 min 0 W/m 25,1 km/h (4 Bft)
20.02.2015 04:14 3,5 C 2,2 C 83 % 1015,5 hPa 0,0 l/m 0 min 0 min 0 W/m 23,0 km/h (4 Bft)
20.02.2015 04:16 3,6 C 2,2 C 83 % 1015,5 hPa 0,0 l/m 0 min 0 min 0 W/m 18,8 km/h (3 Bft)
20.02.2015 04:18 3,6 C 2,2 C 83 % 1015,4 hPa 0,0 l/m 0 min 0 min 0 W/m 25,1 km/h (4 Bft)
20.02.2015 04:20 3,6 C 2,2 C 83 % 1015,4 hPa 0,0 l/m 0 min 0 min 0 W/m 23,0 km/h (4 Bft)
20.02.2015 04:22 3,6 C 2,2 C 82 % 1015,4 hPa 0,0 l/m 0 min 0 min 0 W/m 23,0 km/h (4 Bft)
20.02.2015 04:24 3,6 C 2,2 C 82 % 1015,3 hPa 0,0 l/m 0 min 0 min 0 W/m 20,9 km/h (4 Bft)
20.02.2015 04:26 3,6 C 2,2 C 82 % 1015,2 hPa 0,0 l/m 0 min 0 min 0 W/m 23,0 km/h (4 Bft)
20.02.2015 04:28 3,6 C 2,2 C 82 % 1015,1 hPa 0,0 l/m 0 min 0 min 0 W/m 23,0 km/h (4 Bft)
20.02.2015 04:30 3,6 C 2,2 C 82 % 1015,1 hPa 0,0 l/m 0 min 0 min 0 W/m 23,0 km/h (4 Bft)
20.02.2015 04:32 3,6 C 2,2 C 82 % 1015,1 hPa 0,0 l/m 0 min 0 min 0 W/m 25,1 km/h (4 Bft)
20.02.2015 04:34 3,6 C 2,2 C 82 % 1015,0 hPa 0,0 l/m 0 min 0 min 0 W/m 29,3 km/h (5 Bft)
20.02.2015 04:36 3,6 C 2,2 C 82 % 1015,0 hPa 0,0 l/m 0 min 0 min 0 W/m 18,8 km/h (3 Bft)
20.02.2015 04:38 3,6 C 2,2 C 82 % 1015,0 hPa 0,0 l/m 0 min 0 min 0 W/m 25,1 km/h (4 Bft)
20.02.2015 04:40 3,6 C 2,2 C 82 % 1014,8 hPa 0,0 l/m 0 min 0 min 0 W/m 27,2 km/h (4 Bft)
20.02.2015 04:42 3,6 C 2,2 C 82 % 1014,8 hPa 0,0 l/m 0 min 0 min 0 W/m 18,8 km/h (3 Bft)
20.02.2015 04:44 3,6 C 2,2 C 82 % 1014,7 hPa 0,0 l/m 0 min 0 min 0 W/m 25,1 km/h (4 Bft)
20.02.2015 04:46 3,6 C 2,2 C 82 % 1014,7 hPa 0,0 l/m 0 min 0 min 0 W/m 20,9 km/h (4 Bft)
20.02.2015 04:48 3,6 C 2,2 C 82 % 1014,7 hPa 0,0 l/m 0 min 0 min 0 W/m 20,9 km/h (4 Bft)
20.02.2015 04:50 3,6 C 2,2 C 82 % 1014,7 hPa 0,0 l/m 0 min 0 min 0 W/m 18,8 km/h (3 Bft)
20.02.2015 04:52 3,6 C 2,2 C 82 % 1014,6 hPa 0,0 l/m 0 min 0 min 0 W/m 20,9 km/h (4 Bft)
20.02.2015 04:54 3,6 C 2,2 C 82 % 1014,6 hPa 0,0 l/m 0 min 0 min 0 W/m 27,2 km/h (4 Bft)
20.02.2015 04:56 3,5 C 2,2 C 82 % 1014,6 hPa 0,0 l/m 0 min 0 min 0 W/m 18,8 km/h (3 Bft)
20.02.2015 04:58 3,5 C 2,2 C 82 % 1014,5 hPa 0,0 l/m 0 min 0 min 0 W/m 20,9 km/h (4 Bft)
20.02.2015 05:00 3,5 C 2,2 C 82 % 1014,4 hPa 0,0 l/m 0 min 0 min 0 W/m 16,7 km/h (3 Bft)
20.02.2015 05:02 3,5 C 2,2 C 82 % 1014,4 hPa 0,0 l/m 0 min 0 min 0 W/m 20,9 km/h (4 Bft)
20.02.2015 05:04 3,5 C 2,2 C 82 % 1014,4 hPa 0,0 l/m 0 min 0 min 0 W/m 25,1 km/h (4 Bft)
20.02.2015 05:06 3,4 C 2,2 C 82 % 1014,5 hPa 0,0 l/m 0 min 0 min 0 W/m 29,3 km/h (5 Bft)
20.02.2015 05:08 3,4 C 2,2 C 82 % 1014,4 hPa 0,0 l/m 0 min 0 min 0 W/m 16,7 km/h (3 Bft)
20.02.2015 05:10 3,4 C 2,2 C 82 % 1014,4 hPa 0,0 l/m 0 min 0 min 0 W/m 14,6 km/h (3 Bft)
20.02.2015 05:12 3,4 C 2,2 C 82 % 1014,4 hPa 0,0 l/m 0 min 0 min 0 W/m 20,9 km/h (4 Bft)
20.02.2015 05:14 3,4 C 2,2 C 82 % 1014,4 hPa 0,0 l/m 0 min 0 min 0 W/m 18,8 km/h (3 Bft)
20.02.2015 05:16 3,4 C 2,2 C 82 % 1014,4 hPa 0,0 l/m 0 min 0 min 0 W/m 23,0 km/h (4 Bft)
20.02.2015 05:18 3,4 C 2,2 C 82 % 1014,3 hPa 0,0 l/m 0 min 0 min 0 W/m 12,6 km/h (3 Bft)
20.02.2015 05:20 3,4 C 2,2 C 82 % 1014,3 hPa 0,0 l/m 0 min 0 min 0 W/m 18,8 km/h (3 Bft)
20.02.2015 05:22 3,4 C 2,2 C 82 % 1014,3 hPa 0,0 l/m 0 min 0 min 0 W/m 18,8 km/h (3 Bft)
20.02.2015 05:24 3,4 C 2,2 C 82 % 1014,2 hPa 0,0 l/m 0 min 0 min 0 W/m 20,9 km/h (4 Bft)
20.02.2015 05:26 3,3 C 2,2 C 82 % 1014,2 hPa 0,0 l/m 0 min 0 min 0 W/m 25,1 km/h (4 Bft)
20.02.2015 05:28 3,3 C 1,7 C 82 % 1014,2 hPa 0,0 l/m 0 min 0 min 0 W/m 16,7 km/h (3 Bft)
20.02.2015 05:30 3,3 C 1,7 C 83 % 1014,2 hPa 0,0 l/m 0 min 0 min 0 W/m 16,7 km/h (3 Bft)
20.02.2015 05:32 3,3 C 1,7 C 83 % 1014,1 hPa 0,0 l/m 0 min 0 min 0 W/m 16,7 km/h (3 Bft)
20.02.2015 05:34 3,3 C 1,7 C 83 % 1014,1 hPa 0,0 l/m 0 min 0 min 0 W/m 20,9 km/h (4 Bft)
20.02.2015 05:36 3,3 C 2,2 C 83 % 1014,1 hPa 0,0 l/m 0 min 0 min 0 W/m 20,9 km/h (4 Bft)
20.02.2015 05:38 3,3 C 2,2 C 83 % 1014,1 hPa 0,0 l/m 0 min 0 min 0 W/m 16,7 km/h (3 Bft)
20.02.2015 05:40 3,3 C 2,2 C 83 % 1014,1 hPa 0,0 l/m 0 min 0 min 0 W/m 14,6 km/h (3 Bft)
20.02.2015 05:42 3,3 C 2,2 C 83 % 1014,0 hPa 0,0 l/m 0 min 0 min 0 W/m 16,7 km/h (3 Bft)
20.02.2015 05:44 3,3 C 2,2 C 83 % 1014,0 hPa 0,0 l/m 0 min 0 min 0 W/m 18,8 km/h (3 Bft)
20.02.2015 05:46 3,3 C 2,2 C 83 % 1014,0 hPa 0,0 l/m 0 min 0 min 0 W/m 10,5 km/h (2 Bft)
20.02.2015 05:48 3,3 C 2,2 C 83 % 1014,0 hPa 0,0 l/m 0 min 0 min 0 W/m 12,6 km/h (3 Bft)
20.02.2015 05:50 3,3 C 2,2 C 83 % 1014,0 hPa 0,0 l/m 0 min 0 min 0 W/m 14,6 km/h (3 Bft)
20.02.2015 05:52 3,3 C 2,2 C 83 % 1013,9 hPa 0,0 l/m 0 min 0 min 0 W/m 16,7 km/h (3 Bft)
20.02.2015 05:54 3,3 C 2,2 C 83 % 1013,9 hPa 0,0 l/m 0 min 0 min 0 W/m 14,6 km/h (3 Bft)
20.02.2015 05:56 3,3 C 2,2 C 83 % 1013,9 hPa 0,0 l/m 0 min 0 min 0 W/m 14,6 km/h (3 Bft)
20.02.2015 05:58 3,3 C 2,2 C 83 % 1013,7 hPa 0,0 l/m 0 min 0 min 0 W/m 14,6 km/h (3 Bft)
20.02.2015 06:00 3,3 C 2,2 C 83 % 1013,7 hPa 0,0 l/m 0 min 0 min 0 W/m 12,6 km/h (3 Bft)
20.02.2015 06:02 3,3 C 2,2 C 83 % 1013,7 hPa 0,0 l/m 0 min 0 min 0 W/m 12,6 km/h (3 Bft)
20.02.2015 06:04 3,3 C 2,2 C 83 % 1013,7 hPa 0,0 l/m 0 min 0 min 0 W/m 14,6 km/h (3 Bft)
20.02.2015 06:06 3,3 C 2,2 C 83 % 1013,6 hPa 0,0 l/m 0 min 0 min 0 W/m 14,6 km/h (3 Bft)
20.02.2015 06:08 3,3 C 2,2 C 84 % 1013,6 hPa 0,0 l/m 0 min 0 min 0 W/m 14,6 km/h (3 Bft)
20.02.2015 06:10 3,4 C 2,2 C 84 % 1013,7 hPa 0,0 l/m 0 min 0 min 0 W/m 23,0 km/h (4 Bft)
20.02.2015 06:12 3,4 C 2,2 C 84 % 1013,7 hPa 0,0 l/m 0 min 0 min 0 W/m 18,8 km/h (3 Bft)
20.02.2015 06:14 3,4 C 2,8 C 84 % 1013,6 hPa 0,0 l/m 0 min 0 min 0 W/m 20,9 km/h (4 Bft)
20.02.2015 06:16 3,5 C 2,8 C 84 % 1013,6 hPa 0,0 l/m 0 min 0 min 0 W/m 14,6 km/h (3 Bft)
20.02.2015 06:18 3,6 C 2,8 C 84 % 1013,6 hPa 0,0 l/m 0 min 0 min 0 W/m 20,9 km/h (4 Bft)
20.02.2015 06:20 3,7 C 2,8 C 84 % 1013,5 hPa 0,0 l/m 0 min 0 min 0 W/m 25,1 km/h (4 Bft)
20.02.2015 06:22 3,8 C 3,3 C 84 % 1013,5 hPa 0,0 l/m 0 min 0 min 0 W/m 23,0 km/h (4 Bft)
20.02.2015 06:24 3,8 C 3,3 C 84 % 1013,4 hPa 0,0 l/m 0 min 0 min 0 W/m 27,2 km/h (4 Bft)
20.02.2015 06:26 3,9 C 3,3 C 84 % 1013,3 hPa 0,0 l/m 0 min 0 min 0 W/m 20,9 km/h (4 Bft)
20.02.2015 06:28 4,0 C 3,3 C 84 % 1013,3 hPa 0,0 l/m 0 min 0 min 0 W/m 29,3 km/h (5 Bft)
20.02.2015 06:30 4,1 C 3,3 C 84 % 1013,3 hPa 0,0 l/m 0 min 0 min 0 W/m 25,1 km/h (4 Bft)
20.02.2015 06:32 4,1 C 3,3 C 84 % 1013,2 hPa 0,0 l/m 0 min 0 min 0 W/m 25,1 km/h (4 Bft)
20.02.2015 06:34 4,2 C 3,3 C 84 % 1013,2 hPa 0,0 l/m 0 min 0 min 0 W/m 14,6 km/h (3 Bft)
20.02.2015 06:36 4,2 C 3,3 C 84 % 1013,2 hPa 0,0 l/m 0 min 0 min 0 W/m 25,1 km/h (4 Bft)
20.02.2015 06:38 4,3 C 3,3 C 83 % 1013,2 hPa 0,0 l/m 0 min 0 min 0 W/m 16,7 km/h (3 Bft)
20.02.2015 06:40 4,3 C 3,3 C 83 % 1013,2 hPa 0,0 l/m 0 min 0 min 0 W/m 25,1 km/h (4 Bft)
20.02.2015 06:42 4,4 C 3,3 C 83 % 1013,1 hPa 0,0 l/m 0 min 0 min 0 W/m 27,2 km/h (4 Bft)
20.02.2015 06:44 4,4 C 3,3 C 83 % 1013,0 hPa 0,0 l/m 0 min 0 min 0 W/m 20,9 km/h (4 Bft)
20.02.2015 06:46 4,5 C 3,3 C 83 % 1013,1 hPa 0,0 l/m 0 min 0 min 0 W/m 29,3 km/h (5 Bft)
20.02.2015 06:48 4,5 C 3,3 C 83 % 1013,0 hPa 0,0 l/m 0 min 0 min 0 W/m 25,1 km/h (4 Bft)
20.02.2015 06:50 4,6 C 3,3 C 83 % 1012,9 hPa 0,0 l/m 0 min 0 min 0 W/m 14,6 km/h (3 Bft)
20.02.2015 06:52 4,6 C 3,3 C 83 % 1013,0 hPa 0,0 l/m 0 min 0 min 0 W/m 20,9 km/h (4 Bft)
20.02.2015 06:54 4,6 C 3,3 C 83 % 1012,9 hPa 0,0 l/m 0 min 0 min 0 W/m 20,9 km/h (4 Bft)
20.02.2015 06:56 4,7 C 3,3 C 82 % 1012,9 hPa 0,0 l/m 0 min 0 min 0 W/m 20,9 km/h (4 Bft)
20.02.2015 06:58 4,7 C 3,3 C 82 % 1013,0 hPa 0,0 l/m 0 min 0 min 0 W/m 20,9 km/h (4 Bft)
20.02.2015 07:00 4,7 C 3,3 C 82 % 1013,0 hPa 0,0 l/m 0 min 0 min 0 W/m 16,7 km/h (3 Bft)
20.02.2015 07:02 4,7 C 3,3 C 82 % 1013,0 hPa 0,0 l/m 0 min 0 min 0 W/m 18,8 km/h (3 Bft)
20.02.2015 07:04 4,7 C 3,3 C 82 % 1012,9 hPa 0,0 l/m 0 min 0 min 0 W/m 20,9 km/h (4 Bft)
20.02.2015 07:06 4,7 C 3,3 C 82 % 1012,9 hPa 0,0 l/m 0 min 0 min 0 W/m 25,1 km/h (4 Bft)
20.02.2015 07:08 4,8 C 3,3 C 82 % 1012,9 hPa 0,0 l/m 0 min 0 min 0 W/m 23,0 km/h (4 Bft)
20.02.2015 07:10 4,8 C 3,3 C 82 % 1012,9 hPa 0,0 l/m 0 min 0 min 0 W/m 25,1 km/h (4 Bft)
20.02.2015 07:12 4,8 C 3,3 C 82 % 1012,9 hPa 0,0 l/m 0 min 0 min 0 W/m 23,0 km/h (4 Bft)
20.02.2015 07:14 4,8 C 3,3 C 82 % 1012,8 hPa 0,0 l/m 0 min 0 min 0 W/m 18,8 km/h (3 Bft)
20.02.2015 07:16 4,9 C 3,3 C 82 % 1012,8 hPa 0,0 l/m 0 min 0 min 0 W/m 23,0 km/h (4 Bft)
20.02.2015 07:18 4,9 C 3,3 C 82 % 1012,8 hPa 0,0 l/m 0 min 0 min 0 W/m 25,1 km/h (4 Bft)
20.02.2015 07:20 4,9 C 3,3 C 82 % 1012,9 hPa 0,0 l/m 0 min 0 min 0 W/m 29,3 km/h (5 Bft)
20.02.2015 07:22 4,9 C 3,9 C 82 % 1012,9 hPa 0,0 l/m 0 min 0 min 0 W/m 16,7 km/h (3 Bft)
20.02.2015 07:24 4,9 C 3,9 C 82 % 1012,8 hPa 0,0 l/m 0 min 0 min 0 W/m 27,2 km/h (4 Bft)
20.02.2015 07:26 4,9 C 3,9 C 82 % 1012,9 hPa 0,0 l/m 0 min 0 min 0 W/m 23,0 km/h (4 Bft)
20.02.2015 07:28 5,0 C 3,9 C 82 % 1012,9 hPa 0,0 l/m 0 min 0 min 0 W/m 14,6 km/h (3 Bft)
20.02.2015 07:30 5,0 C 3,9 C 82 % 1012,8 hPa 0,0 l/m 0 min 0 min 0 W/m 23,0 km/h (4 Bft)
20.02.2015 07:32 5,0 C 3,9 C 82 % 1012,8 hPa 0,0 l/m 0 min 0 min 0 W/m 20,9 km/h (4 Bft)
20.02.2015 07:34 5,1 C 3,9 C 82 % 1012,7 hPa 0,0 l/m 0 min 0 min 0 W/m 25,1 km/h (4 Bft)
20.02.2015 07:36 5,1 C 3,9 C 82 % 1012,8 hPa 0,0 l/m 0 min 0 min 0 W/m 25,1 km/h (4 Bft)
20.02.2015 07:38 5,1 C 3,9 C 82 % 1012,8 hPa 0,0 l/m 0 min 0 min 0 W/m 27,2 km/h (4 Bft)
20.02.2015 07:40 5,1 C 3,9 C 82 % 1012,7 hPa 0,0 l/m 0 min 0 min 0 W/m 16,7 km/h (3 Bft)
20.02.2015 07:42 5,1 C 3,9 C 82 % 1012,8 hPa 0,0 l/m 0 min 0 min 0 W/m 27,2 km/h (4 Bft)
20.02.2015 07:44 5,1 C 3,9 C 82 % 1012,8 hPa 0,0 l/m 0 min 0 min 0 W/m 20,9 km/h (4 Bft)
20.02.2015 07:46 5,1 C 3,3 C 82 % 1012,8 hPa 0,0 l/m 0 min 2 min 0 W/m 18,8 km/h (3 Bft)
20.02.2015 07:48 5,1 C 3,3 C 82 % 1012,8 hPa 0,0 l/m 0 min 2 min 0 W/m 20,9 km/h (4 Bft)
20.02.2015 07:50 5,2 C 3,3 C 82 % 1012,7 hPa 0,0 l/m 0 min 2 min 2 W/m 23,0 km/h (4 Bft)
20.02.2015 07:52 5,2 C 3,3 C 82 % 1012,7 hPa 0,0 l/m 0 min 2 min 5 W/m 20,9 km/h (4 Bft)
20.02.2015 07:54 5,1 C 3,3 C 82 % 1012,7 hPa 0,0 l/m 0 min 2 min 5 W/m 25,1 km/h (4 Bft)
20.02.2015 07:56 5,1 C 3,3 C 83 % 1012,7 hPa 0,0 l/m 0 min 0 min 5 W/m 25,1 km/h (4 Bft)
20.02.2015 07:58 5,2 C 3,3 C 83 % 1012,8 hPa 0,0 l/m 0 min 0 min 5 W/m 18,8 km/h (3 Bft)
20.02.2015 08:00 5,2 C 3,3 C 83 % 1012,7 hPa 0,0 l/m 0 min 0 min 5 W/m 16,7 km/h (3 Bft)
20.02.2015 08:02 5,1 C 3,3 C 83 % 1012,7 hPa 0,0 l/m 0 min 0 min 7 W/m 18,8 km/h (3 Bft)
20.02.2015 08:04 5,1 C 3,3 C 83 % 1012,8 hPa 0,0 l/m 0 min 0 min 7 W/m 25,1 km/h (4 Bft)
20.02.2015 08:06 5,1 C 3,3 C 84 % 1012,8 hPa 0,0 l/m 0 min 0 min 6 W/m 25,1 km/h (4 Bft)
20.02.2015 08:08 5,1 C 3,3 C 84 % 1012,9 hPa 0,0 l/m 0 min 0 min 7 W/m 20,9 km/h (4 Bft)
20.02.2015 08:10 5,1 C 3,3 C 84 % 1012,8 hPa 0,0 l/m 0 min 0 min 7 W/m 29,3 km/h (5 Bft)
20.02.2015 08:12 5,1 C 3,3 C 84 % 1012,8 hPa 0,0 l/m 0 min 0 min 7 W/m 20,9 km/h (4 Bft)
20.02.2015 08:14 5,1 C 3,3 C 84 % 1012,8 hPa 0,0 l/m 0 min 2 min 8 W/m 18,8 km/h (3 Bft)
20.02.2015 08:16 5,1 C 3,3 C 85 % 1012,8 hPa 0,0 l/m 0 min 2 min 9 W/m 23,0 km/h (4 Bft)
20.02.2015 08:18 5,1 C 3,3 C 85 % 1012,8 hPa 0,0 l/m 0 min 2 min 9 W/m 16,7 km/h (3 Bft)
20.02.2015 08:20 5,1 C 3,3 C 85 % 1012,8 hPa 0,0 l/m 0 min 2 min 9 W/m 18,8 km/h (3 Bft)
20.02.2015 08:22 5,1 C 3,3 C 85 % 1012,8 hPa 0,0 l/m 0 min 2 min 9 W/m 20,9 km/h (4 Bft)
20.02.2015 08:24 5,1 C 2,8 C 85 % 1012,7 hPa 0,0 l/m 0 min 2 min 12 W/m 18,8 km/h (3 Bft)
20.02.2015 08:26 5,1 C 2,8 C 85 % 1012,6 hPa 0,0 l/m 0 min 2 min 12 W/m 23,0 km/h (4 Bft)
20.02.2015 08:28 5,1 C 2,8 C 85 % 1012,6 hPa 0,0 l/m 0 min 2 min 12 W/m 18,8 km/h (3 Bft)
20.02.2015 08:30 5,1 C 2,8 C 86 % 1012,6 hPa 0,0 l/m 0 min 2 min 14 W/m 23,0 km/h (4 Bft)
20.02.2015 08:32 5,1 C 2,8 C 86 % 1012,6 hPa 0,0 l/m 0 min 2 min 17 W/m 14,6 km/h (3 Bft)
20.02.2015 08:34 5,1 C 2,8 C 86 % 1012,6 hPa 0,0 l/m 0 min 2 min 18 W/m 20,9 km/h (4 Bft)
20.02.2015 08:36 5,1 C 2,8 C 86 % 1012,6 hPa 0,0 l/m 0 min 2 min 16 W/m 14,6 km/h (3 Bft)
20.02.2015 08:38 5,1 C 2,8 C 87 % 1012,6 hPa 0,0 l/m 0 min 2 min 16 W/m 14,6 km/h (3 Bft)
20.02.2015 08:40 5,1 C 2,8 C 86 % 1012,5 hPa 0,0 l/m 0 min 2 min 16 W/m 18,8 km/h (3 Bft)
20.02.2015 08:42 5,1 C 2,8 C 87 % 1012,5 hPa 0,2 l/m 0 min 2 min 17 W/m 23,0 km/h (4 Bft)
20.02.2015 08:44 5,1 C 2,8 C 87 % 1012,5 hPa 0,0 l/m 0 min 2 min 18 W/m 20,9 km/h (4 Bft)
20.02.2015 08:46 5,1 C 2,8 C 87 % 1012,5 hPa 0,0 l/m 0 min 2 min 16 W/m 20,9 km/h (4 Bft)
20.02.2015 08:48 5,1 C 2,8 C 87 % 1012,5 hPa 0,0 l/m 0 min 2 min 18 W/m 18,8 km/h (3 Bft)
20.02.2015 08:50 5,1 C 2,8 C 87 % 1012,5 hPa 0,0 l/m 0 min 2 min 17 W/m 20,9 km/h (4 Bft)
20.02.2015 08:52 5,1 C 2,8 C 88 % 1012,4 hPa 0,0 l/m 0 min 2 min 16 W/m 27,2 km/h (4 Bft)
20.02.2015 08:54 5,1 C 2,8 C 88 % 1012,4 hPa 0,0 l/m 0 min 2 min 22 W/m 20,9 km/h (4 Bft)
20.02.2015 08:56 5,1 C 3,3 C 88 % 1012,3 hPa 0,0 l/m 0 min 2 min 32 W/m 20,9 km/h (4 Bft)
20.02.2015 08:58 5,1 C 3,3 C 88 % 1012,2 hPa 0,0 l/m 0 min 2 min 40 W/m 16,7 km/h (3 Bft)
20.02.2015 09:00 5,1 C 3,3 C 88 % 1012,2 hPa 0,0 l/m 0 min 2 min 50 W/m 18,8 km/h (3 Bft)
20.02.2015 09:02 5,1 C 3,3 C 88 % 1012,2 hPa 0,0 l/m 0 min 2 min 67 W/m 20,9 km/h (4 Bft)
20.02.2015 09:04 5,1 C 3,3 C 88 % 1012,2 hPa 0,0 l/m 0 min 0 min 84 W/m 23,0 km/h (4 Bft)
20.02.2015 09:06 5,1 C 3,3 C 89 % 1012,2 hPa 0,0 l/m 0 min 0 min 98 W/m 18,8 km/h (3 Bft)
20.02.2015 09:08 5,1 C 3,3 C 89 % 1012,2 hPa 0,0 l/m 2 min 2 min 115 W/m 31,4 km/h (5 Bft)
20.02.2015 09:10 5,2 C 3,3 C 89 % 1012,2 hPa 0,0 l/m 2 min 0 min 109 W/m 14,6 km/h (3 Bft)
20.02.2015 09:12 5,2 C 3,3 C 89 % 1012,1 hPa 0,0 l/m 0 min 0 min 103 W/m 16,7 km/h (3 Bft)
20.02.2015 09:14 5,2 C 3,9 C 89 % 1012,2 hPa 0,0 l/m 0 min 0 min 86 W/m 14,6 km/h (3 Bft)
20.02.2015 09:16 5,2 C 3,3 C 89 % 1012,2 hPa 0,0 l/m 0 min 0 min 77 W/m 31,4 km/h (5 Bft)
20.02.2015 09:18 5,2 C 3,9 C 89 % 1012,1 hPa 0,0 l/m 0 min 0 min 75 W/m 23,0 km/h (4 Bft)
20.02.2015 09:20 5,3 C 3,9 C 89 % 1012,1 hPa 0,0 l/m 0 min 0 min 69 W/m 23,0 km/h (4 Bft)
20.02.2015 09:22 5,3 C 3,9 C 89 % 1011,9 hPa 0,0 l/m 0 min 0 min 63 W/m 23,0 km/h (4 Bft)
20.02.2015 09:24 5,3 C 3,9 C 89 % 1012,1 hPa 0,0 l/m 0 min 0 min 62 W/m 31,4 km/h (5 Bft)
20.02.2015 09:26 5,3 C 3,9 C 89 % 1011,9 hPa 0,0 l/m 0 min 0 min 60 W/m 18,8 km/h (3 Bft)
20.02.2015 09:28 5,3 C 3,9 C 89 % 1011,9 hPa 0,0 l/m 0 min 0 min 57 W/m 23,0 km/h (4 Bft)
20.02.2015 09:30 5,4 C 3,9 C 89 % 1012,0 hPa 0,0 l/m 0 min 0 min 52 W/m 20,9 km/h (4 Bft)
20.02.2015 09:32 5,4 C 3,9 C 89 % 1012,0 hPa 0,0 l/m 0 min 0 min 47 W/m 25,1 km/h (4 Bft)
20.02.2015 09:34 5,4 C 3,9 C 89 % 1011,8 hPa 0,0 l/m 0 min 0 min 52 W/m 20,9 km/h (4 Bft)
20.02.2015 09:36 5,4 C 3,9 C 89 % 1011,8 hPa 0,0 l/m 0 min 0 min 58 W/m 20,9 km/h (4 Bft)
20.02.2015 09:38 5,4 C 3,9 C 89 % 1011,8 hPa 0,0 l/m 0 min 0 min 57 W/m 23,0 km/h (4 Bft)
20.02.2015 09:40 5,5 C 3,9 C 89 % 1011,8 hPa 0,0 l/m 0 min 0 min 52 W/m 27,2 km/h (4 Bft)
20.02.2015 09:42 5,5 C 3,9 C 89 % 1011,8 hPa 0,0 l/m 0 min 0 min 48 W/m 27,2 km/h (4 Bft)
20.02.2015 09:44 5,5 C 3,9 C 89 % 1011,8 hPa 0,0 l/m 0 min 0 min 49 W/m 18,8 km/h (3 Bft)
20.02.2015 09:46 5,5 C 3,9 C 89 % 1011,8 hPa 0,0 l/m 0 min 0 min 51 W/m 31,4 km/h (5 Bft)
20.02.2015 09:48 5,6 C 3,9 C 88 % 1011,7 hPa 0,0 l/m 0 min 0 min 49 W/m 23,0 km/h (4 Bft)
20.02.2015 09:50 5,6 C 3,9 C 88 % 1011,7 hPa 0,0 l/m 0 min 0 min 51 W/m 25,1 km/h (4 Bft)
20.02.2015 09:52 5,6 C 3,9 C 88 % 1011,7 hPa 0,0 l/m 0 min 0 min 50 W/m 29,3 km/h (5 Bft)
20.02.2015 09:54 5,6 C 3,9 C 88 % 1011,7 hPa 0,0 l/m 0 min 0 min 49 W/m 29,3 km/h (5 Bft)
20.02.2015 09:56 5,7 C 4,4 C 88 % 1011,6 hPa 0,0 l/m 0 min 0 min 53 W/m 23,0 km/h (4 Bft)
20.02.2015 09:58 5,7 C 4,4 C 88 % 1011,6 hPa 0,0 l/m 0 min 0 min 59 W/m 20,9 km/h (4 Bft)
20.02.2015 10:00 5,7 C 4,4 C 88 % 1011,6 hPa 0,0 l/m 0 min 0 min 68 W/m 18,8 km/h (3 Bft)
20.02.2015 10:02 5,7 C 4,4 C 88 % 1011,6 hPa 0,0 l/m 0 min 0 min 83 W/m 20,9 km/h (4 Bft)
20.02.2015 10:04 5,7 C 4,4 C 88 % 1011,6 hPa 0,0 l/m 0 min 0 min 87 W/m 27,2 km/h (4 Bft)
20.02.2015 10:06 5,8 C 4,4 C 88 % 1011,6 hPa 0,0 l/m 0 min 0 min 63 W/m 20,9 km/h (4 Bft)
20.02.2015 10:08 5,8 C 4,4 C 88 % 1011,6 hPa 0,0 l/m 0 min 0 min 54 W/m 23,0 km/h (4 Bft)
20.02.2015 10:10 5,8 C 4,4 C 87 % 1011,6 hPa 0,0 l/m 0 min 0 min 52 W/m 16,7 km/h (3 Bft)
20.02.2015 10:11 5,9 C 4,4 C 87 % 1011,6 hPa 0,0 l/m 0 min 0 min 57 W/m 25,1 km/h (4 Bft)
20.02.2015 10:12 5,9 C 4,4 C 87 % 1011,6 hPa 0,0 l/m 0 min 0 min 60 W/m 25,1 km/h (4 Bft)
20.02.2015 10:18 5,9 C 4,4 C 87 % 1011,6 hPa 0,0 l/m 0 min 0 min 54 W/m 25,1 km/h (4 Bft)
20.02.2015 10:20 6,0 C 4,4 C 87 % 1011,6 hPa 0,0 l/m 0 min 0 min 52 W/m 16,7 km/h (3 Bft)
20.02.2015 10:22 6,0 C 4,4 C 87 % 1011,6 hPa 0,0 l/m 0 min 0 min 55 W/m 16,7 km/h (3 Bft)
20.02.2015 10:24 6,0 C 4,4 C 87 % 1011,6 hPa 0,0 l/m 0 min 0 min 54 W/m 12,6 km/h (3 Bft)
20.02.2015 10:26 6,0 C 4,4 C 87 % 1011,5 hPa 0,0 l/m 0 min 0 min 49 W/m 18,8 km/h (3 Bft)
20.02.2015 10:28 6,1 C 4,4 C 86 % 1011,5 hPa 0,0 l/m 0 min 0 min 50 W/m 18,8 km/h (3 Bft)
20.02.2015 10:30 6,1 C 4,4 C 86 % 1011,5 hPa 0,0 l/m 0 min 0 min 46 W/m 25,1 km/h (4 Bft)
20.02.2015 10:32 6,1 C 4,4 C 86 % 1011,5 hPa 0,0 l/m 0 min 0 min 51 W/m 20,9 km/h (4 Bft)
20.02.2015 10:34 6,1 C 5,0 C 86 % 1011,4 hPa 0,0 l/m 0 min 0 min 56 W/m 27,2 km/h (4 Bft)
20.02.2015 10:36 6,2 C 5,0 C 86 % 1011,4 hPa 0,0 l/m 0 min 0 min 62 W/m 23,0 km/h (4 Bft)
20.02.2015 10:38 6,2 C 5,0 C 86 % 1011,4 hPa 0,0 l/m 0 min 0 min 59 W/m 23,0 km/h (4 Bft)
20.02.2015 10:40 6,2 C 5,0 C 86 % 1011,4 hPa 0,0 l/m 0 min 0 min 61 W/m 23,0 km/h (4 Bft)
20.02.2015 10:42 6,2 C 5,0 C 86 % 1011,4 hPa 0,0 l/m 0 min 0 min 63 W/m 27,2 km/h (4 Bft)
20.02.2015 10:44 6,3 C 5,0 C 86 % 1011,4 hPa 0,0 l/m 0 min 0 min 68 W/m 18,8 km/h (3 Bft)
20.02.2015 10:46 6,3 C 5,0 C 86 % 1011,3 hPa 0,0 l/m 0 min 0 min 73 W/m 23,0 km/h (4 Bft)
20.02.2015 10:48 6,3 C 5,0 C 86 % 1011,2 hPa 0,0 l/m 0 min 0 min 80 W/m 18,8 km/h (3 Bft)
20.02.2015 10:50 6,4 C 5,6 C 86 % 1011,2 hPa 0,0 l/m 0 min 0 min 80 W/m 20,9 km/h (4 Bft)
20.02.2015 10:52 6,4 C 5,6 C 86 % 1011,2 hPa 0,0 l/m 0 min 0 min 91 W/m 23,0 km/h (4 Bft)
20.02.2015 10:54 6,4 C 5,6 C 86 % 1011,2 hPa 0,0 l/m 0 min 0 min 114 W/m 25,1 km/h (4 Bft)
20.02.2015 10:56 6,4 C 5,6 C 86 % 1011,2 hPa 0,0 l/m 0 min 0 min 132 W/m 25,1 km/h (4 Bft)
20.02.2015 10:58 6,4 C 5,6 C 86 % 1011,2 hPa 0,0 l/m 0 min 0 min 133 W/m 20,9 km/h (4 Bft)
20.02.2015 11:00 6,5 C 5,6 C 86 % 1011,2 hPa 0,0 l/m 0 min 0 min 110 W/m 33,5 km/h (5 Bft)
20.02.2015 11:02 6,5 C 5,6 C 86 % 1011,1 hPa 0,0 l/m 0 min 0 min 97 W/m 25,1 km/h (4 Bft)
20.02.2015 11:04 6,6 C 5,6 C 86 % 1011,1 hPa 0,0 l/m 0 min 0 min 96 W/m 18,8 km/h (3 Bft)
20.02.2015 11:06 6,6 C 5,6 C 86 % 1011,1 hPa 0,0 l/m 0 min 0 min 91 W/m 20,9 km/h (4 Bft)
20.02.2015 11:08 6,6 C 5,6 C 86 % 1011,1 hPa 0,0 l/m 0 min 0 min 84 W/m 20,9 km/h (4 Bft)
20.02.2015 11:10 6,6 C 5,6 C 86 % 1011,1 hPa 0,0 l/m 0 min 0 min 77 W/m 29,3 km/h (5 Bft)
20.02.2015 11:12 6,6 C 5,6 C 86 % 1011,1 hPa 0,0 l/m 0 min 0 min 78 W/m 29,3 km/h (5 Bft)
20.02.2015 11:14 6,6 C 5,6 C 86 % 1011,0 hPa 0,0 l/m 0 min 0 min 84 W/m 31,4 km/h (5 Bft)
20.02.2015 11:16 6,6 C 5,6 C 86 % 1011,0 hPa 0,0 l/m 0 min 0 min 81 W/m 29,3 km/h (5 Bft)
20.02.2015 11:18 6,7 C 5,6 C 86 % 1011,0 hPa 0,0 l/m 0 min 0 min 71 W/m 18,8 km/h (3 Bft)
20.02.2015 11:20 6,7 C 5,6 C 86 % 1010,9 hPa 0,0 l/m 0 min 0 min 70 W/m 20,9 km/h (4 Bft)
20.02.2015 11:22 6,7 C 5,6 C 86 % 1011,0 hPa 0,0 l/m 0 min 0 min 73 W/m 16,7 km/h (3 Bft)
20.02.2015 11:24 6,7 C 5,6 C 86 % 1011,0 hPa 0,0 l/m 0 min 0 min 73 W/m 20,9 km/h (4 Bft)
20.02.2015 11:26 6,7 C 5,6 C 86 % 1010,9 hPa 0,0 l/m 0 min 0 min 83 W/m 25,1 km/h (4 Bft)
20.02.2015 11:28 6,7 C 5,6 C 86 % 1010,9 hPa 0,0 l/m 0 min 0 min 80 W/m 18,8 km/h (3 Bft)
20.02.2015 11:30 6,7 C 5,6 C 86 % 1010,9 hPa 0,0 l/m 0 min 0 min 73 W/m 20,9 km/h (4 Bft)
20.02.2015 11:32 6,7 C 5,6 C 86 % 1010,9 hPa 0,0 l/m 0 min 0 min 70 W/m 18,8 km/h (3 Bft)
20.02.2015 11:34 6,8 C 6,1 C 86 % 1010,9 hPa 0,0 l/m 0 min 0 min 70 W/m 16,7 km/h (3 Bft)
20.02.2015 11:36 6,8 C 6,1 C 86 % 1010,8 hPa 0,0 l/m 0 min 0 min 68 W/m 20,9 km/h (4 Bft)
20.02.2015 11:38 6,8 C 6,1 C 85 % 1010,9 hPa 0,0 l/m 0 min 0 min 60 W/m 20,9 km/h (4 Bft)
20.02.2015 11:40 6,8 C 5,6 C 85 % 1010,8 hPa 0,0 l/m 0 min 0 min 64 W/m 23,0 km/h (4 Bft)
20.02.2015 11:42 6,8 C 6,1 C 85 % 1010,8 hPa 0,0 l/m 0 min 0 min 76 W/m 20,9 km/h (4 Bft)
20.02.2015 11:44 6,9 C 6,1 C 85 % 1010,8 hPa 0,0 l/m 0 min 0 min 91 W/m 25,1 km/h (4 Bft)
20.02.2015 11:46 6,9 C 6,1 C 85 % 1010,6 hPa 0,0 l/m 0 min 0 min 88 W/m 23,0 km/h (4 Bft)
20.02.2015 11:48 6,9 C 6,1 C 85 % 1010,7 hPa 0,0 l/m 0 min 0 min 79 W/m 20,9 km/h (4 Bft)
20.02.2015 11:50 6,9 C 6,1 C 85 % 1010,6 hPa 0,0 l/m 0 min 0 min 74 W/m 29,3 km/h (5 Bft)
20.02.2015 11:52 6,9 C 6,1 C 85 % 1010,6 hPa 0,0 l/m 0 min 0 min 82 W/m 20,9 km/h (4 Bft)
20.02.2015 11:54 7,0 C 6,1 C 85 % 1010,5 hPa 0,0 l/m 0 min 0 min 84 W/m 20,9 km/h (4 Bft)
20.02.2015 11:56 7,0 C 6,1 C 85 % 1010,5 hPa 0,0 l/m 0 min 0 min 83 W/m 20,9 km/h (4 Bft)
20.02.2015 11:58 7,1 C 6,1 C 85 % 1010,5 hPa 0,0 l/m 0 min 0 min 86 W/m 20,9 km/h (4 Bft)
20.02.2015 12:00 7,1 C 6,1 C 85 % 1010,4 hPa 0,0 l/m 0 min 0 min 82 W/m 18,8 km/h (3 Bft)
20.02.2015 12:02 7,1 C 6,1 C 85 % 1010,3 hPa 0,0 l/m 0 min 0 min 84 W/m 23,0 km/h (4 Bft)
20.02.2015 12:06 7,2 C 6,1 C 85 % 1010,2 hPa 0,0 l/m 0 min 0 min 98 W/m 35,6 km/h (5 Bft)
20.02.2015 12:08 7,2 C 6,1 C 85 % 1010,3 hPa 0,0 l/m 0 min 0 min 96 W/m 25,1 km/h (4 Bft)
20.02.2015 12:10 7,2 C 6,1 C 86 % 1010,3 hPa 0,0 l/m 0 min 0 min 90 W/m 20,9 km/h (4 Bft)
20.02.2015 12:12 7,2 C 6,1 C 86 % 1010,2 hPa 0,0 l/m 0 min 0 min 92 W/m 25,1 km/h (4 Bft)
20.02.2015 12:14 7,2 C 6,1 C 86 % 1010,3 hPa 0,0 l/m 0 min 2 min 100 W/m 27,2 km/h (4 Bft)
20.02.2015 12:16 7,2 C 5,6 C 86 % 1010,2 hPa 0,0 l/m 0 min 0 min 108 W/m 20,9 km/h (4 Bft)
20.02.2015 12:18 7,2 C 5,6 C 87 % 1010,2 hPa 0,0 l/m 0 min 0 min 110 W/m 18,8 km/h (3 Bft)
20.02.2015 12:20 7,2 C 5,6 C 87 % 1010,1 hPa 0,0 l/m 0 min 0 min 112 W/m 14,6 km/h (3 Bft)
20.02.2015 12:22 7,2 C 6,1 C 87 % 1010,0 hPa 0,0 l/m 0 min 0 min 111 W/m 12,6 km/h (3 Bft)
20.02.2015 12:24 7,2 C 6,1 C 87 % 1010,0 hPa 0,0 l/m 0 min 0 min 146 W/m 12,6 km/h (3 Bft)
20.02.2015 12:26 7,2 C 6,1 C 87 % 1009,9 hPa 0,0 l/m 0 min 2 min 149 W/m 23,0 km/h (4 Bft)
20.02.2015 12:28 7,2 C 6,1 C 88 % 1009,9 hPa 0,0 l/m 0 min 2 min 129 W/m 18,8 km/h (3 Bft)
20.02.2015 12:30 7,2 C 6,1 C 88 % 1009,8 hPa 0,0 l/m 0 min 0 min 123 W/m 29,3 km/h (5 Bft)
20.02.2015 12:32 7,1 C 6,1 C 88 % 1009,8 hPa 0,0 l/m 0 min 2 min 140 W/m 25,1 km/h (4 Bft)
20.02.2015 12:34 7,1 C 6,1 C 88 % 1009,8 hPa 0,0 l/m 0 min 0 min 126 W/m 23,0 km/h (4 Bft)
20.02.2015 12:36 7,1 C 6,1 C 88 % 1009,7 hPa 0,0 l/m 0 min 0 min 114 W/m 16,7 km/h (3 Bft)
20.02.2015 12:38 7,1 C 6,1 C 88 % 1009,7 hPa 0,0 l/m 0 min 0 min 111 W/m 18,8 km/h (3 Bft)
20.02.2015 12:40 7,1 C 6,1 C 88 % 1009,7 hPa 0,0 l/m 0 min 0 min 108 W/m 25,1 km/h (4 Bft)
20.02.2015 12:42 7,1 C 6,1 C 88 % 1009,6 hPa 0,0 l/m 0 min 0 min 106 W/m 16,7 km/h (3 Bft)
20.02.2015 12:44 7,1 C 6,1 C 88 % 1009,5 hPa 0,0 l/m 0 min 0 min 101 W/m 14,6 km/h (3 Bft)
20.02.2015 12:46 7,2 C 6,1 C 88 % 1009,5 hPa 0,0 l/m 0 min 0 min 85 W/m 18,8 km/h (3 Bft)
20.02.2015 12:48 7,1 C 6,1 C 88 % 1009,4 hPa 0,0 l/m 0 min 0 min 82 W/m 18,8 km/h (3 Bft)
20.02.2015 12:50 7,2 C 6,1 C 88 % 1009,4 hPa 0,0 l/m 0 min 0 min 80 W/m 23,0 km/h (4 Bft)
20.02.2015 12:52 7,1 C 6,1 C 88 % 1009,3 hPa 0,0 l/m 0 min 0 min 78 W/m 18,8 km/h (3 Bft)
20.02.2015 12:54 7,2 C 6,1 C 88 % 1009,3 hPa 0,0 l/m 0 min 0 min 83 W/m 16,7 km/h (3 Bft)
20.02.2015 12:56 7,2 C 6,1 C 87 % 1009,3 hPa 0,0 l/m 0 min 0 min 102 W/m 25,1 km/h (4 Bft)
20.02.2015 12:58 7,2 C 6,1 C 87 % 1009,2 hPa 0,0 l/m 0 min 0 min 96 W/m 25,1 km/h (4 Bft)
20.02.2015 13:00 7,2 C 6,1 C 87 % 1009,2 hPa 0,0 l/m 0 min 0 min 94 W/m 20,9 km/h (4 Bft)
20.02.2015 13:02 7,2 C 6,1 C 87 % 1009,2 hPa 0,0 l/m 0 min 0 min 86 W/m 29,3 km/h (5 Bft)
20.02.2015 13:04 7,2 C 6,1 C 87 % 1009,2 hPa 0,0 l/m 0 min 0 min 87 W/m 23,0 km/h (4 Bft)
20.02.2015 13:06 7,2 C 6,1 C 87 % 1009,1 hPa 0,0 l/m 0 min 0 min 93 W/m 10,5 km/h (2 Bft)
20.02.2015 13:08 7,2 C 6,7 C 87 % 1009,1 hPa 0,0 l/m 0 min 0 min 101 W/m 20,9 km/h (4 Bft)
20.02.2015 13:10 7,2 C 6,1 C 87 % 1009,1 hPa 0,0 l/m 0 min 0 min 77 W/m 20,9 km/h (4 Bft)
20.02.2015 13:12 7,3 C 6,1 C 87 % 1009,0 hPa 0,0 l/m 0 min 0 min 67 W/m 16,7 km/h (3 Bft)
20.02.2015 13:14 7,3 C 6,1 C 87 % 1009,0 hPa 0,0 l/m 0 min 0 min 80 W/m 18,8 km/h (3 Bft)
20.02.2015 13:16 7,3 C 6,1 C 87 % 1009,0 hPa 0,0 l/m 0 min 0 min 77 W/m 23,0 km/h (4 Bft)
20.02.2015 13:18 7,3 C 6,1 C 87 % 1009,0 hPa 0,0 l/m 0 min 0 min 67 W/m 27,2 km/h (4 Bft)
20.02.2015 13:20 7,3 C 6,1 C 87 % 1008,9 hPa 0,0 l/m 0 min 0 min 59 W/m 23,0 km/h (4 Bft)
20.02.2015 13:22 7,3 C 6,1 C 87 % 1008,9 hPa 0,0 l/m 0 min 0 min 53 W/m 23,0 km/h (4 Bft)
20.02.2015 13:24 7,3 C 6,1 C 87 % 1009,0 hPa 0,0 l/m 0 min 0 min 48 W/m 16,7 km/h (3 Bft)
20.02.2015 13:26 7,3 C 6,1 C 87 % 1008,9 hPa 0,0 l/m 0 min 0 min 47 W/m 33,5 km/h (5 Bft)
20.02.2015 13:28 7,3 C 6,1 C 86 % 1008,8 hPa 0,0 l/m 0 min 0 min 47 W/m 18,8 km/h (3 Bft)
20.02.2015 13:30 7,3 C 6,1 C 86 % 1008,9 hPa 0,0 l/m 0 min 0 min 42 W/m 18,8 km/h (3 Bft)
20.02.2015 13:32 7,3 C 6,1 C 86 % 1008,9 hPa 0,0 l/m 0 min 0 min 40 W/m 18,8 km/h (3 Bft)
20.02.2015 13:34 7,3 C 6,1 C 86 % 1008,8 hPa 0,0 l/m 0 min 0 min 44 W/m 20,9 km/h (4 Bft)
20.02.2015 13:36 7,3 C 6,1 C 86 % 1008,7 hPa 0,0 l/m 0 min 0 min 48 W/m 23,0 km/h (4 Bft)
20.02.2015 13:38 7,3 C 6,1 C 86 % 1008,7 hPa 0,0 l/m 0 min 0 min 54 W/m 12,6 km/h (3 Bft)
20.02.2015 13:40 7,3 C 6,1 C 86 % 1008,7 hPa 0,0 l/m 0 min 0 min 63 W/m 16,7 km/h (3 Bft)
20.02.2015 13:42 7,3 C 6,1 C 86 % 1008,6 hPa 0,0 l/m 0 min 0 min 69 W/m 20,9 km/h (4 Bft)
20.02.2015 13:44 7,3 C 5,6 C 86 % 1008,6 hPa 0,0 l/m 0 min 0 min 75 W/m 29,3 km/h (5 Bft)
20.02.2015 13:46 7,3 C 5,6 C 87 % 1008,5 hPa 0,0 l/m 0 min 2 min 69 W/m 31,4 km/h (5 Bft)
20.02.2015 13:48 7,3 C 5,6 C 87 % 1008,5 hPa 0,0 l/m 0 min 0 min 73 W/m 27,2 km/h (4 Bft)
20.02.2015 13:50 7,3 C 5,6 C 87 % 1008,4 hPa 0,0 l/m 0 min 0 min 80 W/m 20,9 km/h (4 Bft)
20.02.2015 13:52 7,3 C 5,6 C 88 % 1008,3 hPa 0,0 l/m 0 min 0 min 74 W/m 14,6 km/h (3 Bft)
20.02.2015 13:54 7,2 C 5,6 C 88 % 1008,3 hPa 0,0 l/m 0 min 0 min 73 W/m 23,0 km/h (4 Bft)
20.02.2015 13:56 7,2 C 5,6 C 88 % 1008,4 hPa 0,0 l/m 0 min 0 min 73 W/m 18,8 km/h (3 Bft)
20.02.2015 13:58 7,2 C 5,0 C 89 % 1008,3 hPa 0,0 l/m 0 min 0 min 69 W/m 27,2 km/h (4 Bft)
20.02.2015 14:00 7,2 C 5,0 C 89 % 1008,2 hPa 0,0 l/m 0 min 0 min 63 W/m 16,7 km/h (3 Bft)
20.02.2015 14:02 7,1 C 5,0 C 89 % 1008,2 hPa 0,0 l/m 0 min 0 min 60 W/m 10,5 km/h (2 Bft)
20.02.2015 14:04 7,1 C 5,0 C 89 % 1008,2 hPa 0,0 l/m 0 min 0 min 62 W/m 18,8 km/h (3 Bft)
20.02.2015 14:06 7,1 C 5,0 C 90 % 1008,1 hPa 0,0 l/m 0 min 0 min 70 W/m 23,0 km/h (4 Bft)
20.02.2015 14:08 7,0 C 5,6 C 90 % 1008,1 hPa 0,0 l/m 0 min 0 min 79 W/m 10,5 km/h (2 Bft)
20.02.2015 14:10 7,0 C 5,6 C 90 % 1008,0 hPa 0,0 l/m 0 min 0 min 92 W/m 12,6 km/h (3 Bft)
20.02.2015 14:12 7,0 C 5,6 C 90 % 1007,9 hPa 0,0 l/m 0 min 0 min 98 W/m 10,5 km/h (2 Bft)
20.02.2015 14:14 7,0 C 5,6 C 90 % 1007,9 hPa 0,0 l/m 0 min 0 min 85 W/m 14,6 km/h (3 Bft)
20.02.2015 14:16 6,9 C 5,6 C 90 % 1007,9 hPa 0,0 l/m 0 min 0 min 80 W/m 12,6 km/h (3 Bft)
20.02.2015 14:18 6,9 C 5,6 C 91 % 1007,8 hPa 0,0 l/m 0 min 0 min 76 W/m 12,6 km/h (3 Bft)
20.02.2015 14:20 6,9 C 5,6 C 91 % 1007,9 hPa 0,0 l/m 0 min 0 min 65 W/m 14,6 km/h (3 Bft)
20.02.2015 14:22 6,9 C 5,6 C 91 % 1007,7 hPa 0,0 l/m 0 min 0 min 71 W/m 18,8 km/h (3 Bft)
20.02.2015 14:24 6,9 C 5,6 C 91 % 1007,8 hPa 0,0 l/m 0 min 0 min 85 W/m 8,4 km/h (2 Bft)
20.02.2015 14:26 6,9 C 5,6 C 91 % 1007,7 hPa 0,0 l/m 0 min 0 min 97 W/m 14,6 km/h (3 Bft)
20.02.2015 14:28 6,9 C 5,6 C 91 % 1007,7 hPa 0,0 l/m 0 min 2 min 102 W/m 18,8 km/h (3 Bft)
20.02.2015 14:30 6,9 C 5,6 C 91 % 1007,6 hPa 0,0 l/m 0 min 0 min 79 W/m 18,8 km/h (3 Bft)
20.02.2015 14:32 6,9 C 5,6 C 91 % 1007,5 hPa 0,0 l/m 0 min 0 min 82 W/m 16,7 km/h (3 Bft)
20.02.2015 14:34 6,9 C 5,6 C 91 % 1007,4 hPa 0,0 l/m 0 min 0 min 77 W/m 18,8 km/h (3 Bft)
20.02.2015 14:36 7,0 C 5,6 C 91 % 1007,5 hPa 0,0 l/m 0 min 0 min 64 W/m 16,7 km/h (3 Bft)
20.02.2015 14:38 7,0 C 5,6 C 91 % 1007,3 hPa 0,0 l/m 0 min 0 min 52 W/m 23,0 km/h (4 Bft)
20.02.2015 14:40 7,0 C 5,6 C 91 % 1007,2 hPa 0,0 l/m 0 min 2 min 54 W/m 27,2 km/h (4 Bft)
20.02.2015 14:42 7,1 C 5,6 C 91 % 1007,3 hPa 0,0 l/m 0 min 2 min 69 W/m 20,9 km/h (4 Bft)
20.02.2015 14:44 7,1 C 5,6 C 91 % 1007,2 hPa 0,0 l/m 0 min 2 min 68 W/m 23,0 km/h (4 Bft)
20.02.2015 14:46 7,1 C 5,6 C 90 % 1007,1 hPa 0,0 l/m 0 min 2 min 71 W/m 25,1 km/h (4 Bft)
20.02.2015 14:48 7,1 C 5,6 C 90 % 1007,1 hPa 0,0 l/m 0 min 2 min 76 W/m 25,1 km/h (4 Bft)
20.02.2015 14:50 7,2 C 5,6 C 90 % 1007,1 hPa 0,0 l/m 0 min 2 min 75 W/m 20,9 km/h (4 Bft)
20.02.2015 14:52 7,2 C 5,6 C 90 % 1007,1 hPa 0,0 l/m 0 min 2 min 78 W/m 16,7 km/h (3 Bft)
20.02.2015 14:54 7,2 C 5,6 C 90 % 1007,0 hPa 0,0 l/m 0 min 2 min 74 W/m 20,9 km/h (4 Bft)
20.02.2015 14:56 7,2 C 5,6 C 90 % 1007,0 hPa 0,0 l/m 0 min 2 min 68 W/m 23,0 km/h (4 Bft)
20.02.2015 14:58 7,2 C 5,6 C 90 % 1007,0 hPa 0,0 l/m 0 min 2 min 65 W/m 14,6 km/h (3 Bft)
20.02.2015 15:00 7,3 C 5,6 C 90 % 1007,0 hPa 0,2 l/m 0 min 2 min 63 W/m 20,9 km/h (4 Bft)
20.02.2015 15:02 7,3 C 5,6 C 90 % 1006,9 hPa 0,0 l/m 0 min 2 min 66 W/m 23,0 km/h (4 Bft)
20.02.2015 15:04 7,3 C 5,6 C 90 % 1006,9 hPa 0,0 l/m 0 min 2 min 69 W/m 16,7 km/h (3 Bft)
20.02.2015 15:06 7,3 C 5,6 C 90 % 1006,9 hPa 0,0 l/m 0 min 2 min 69 W/m 20,9 km/h (4 Bft)
20.02.2015 15:08 7,3 C 5,6 C 90 % 1006,8 hPa 0,0 l/m 0 min 2 min 63 W/m 18,8 km/h (3 Bft)
20.02.2015 15:10 7,3 C 5,6 C 90 % 1006,8 hPa 0,0 l/m 0 min 2 min 61 W/m 14,6 km/h (3 Bft)
20.02.2015 15:12 7,3 C 5,6 C 90 % 1006,8 hPa 0,0 l/m 0 min 2 min 62 W/m 18,8 km/h (3 Bft)
20.02.2015 15:14 7,3 C 5,6 C 90 % 1006,7 hPa 0,0 l/m 0 min 2 min 59 W/m 12,6 km/h (3 Bft)
20.02.2015 15:16 7,4 C 5,6 C 90 % 1006,8 hPa 0,0 l/m 0 min 2 min 56 W/m 16,7 km/h (3 Bft)
20.02.2015 15:18 7,4 C 5,6 C 90 % 1006,7 hPa 0,0 l/m 0 min 2 min 61 W/m 14,6 km/h (3 Bft)
20.02.2015 15:20 7,4 C 5,6 C 90 % 1006,6 hPa 0,0 l/m 0 min 2 min 59 W/m 23,0 km/h (4 Bft)
20.02.2015 15:22 7,4 C 5,6 C 90 % 1006,6 hPa 0,0 l/m 0 min 2 min 51 W/m 16,7 km/h (3 Bft)
20.02.2015 15:24 7,4 C 5,6 C 90 % 1006,6 hPa 0,0 l/m 0 min 2 min 45 W/m 18,8 km/h (3 Bft)
20.02.2015 15:26 7,4 C 5,0 C 90 % 1006,6 hPa 0,0 l/m 0 min 2 min 48 W/m 18,8 km/h (3 Bft)
20.02.2015 15:28 7,4 C 5,6 C 90 % 1006,6 hPa 0,2 l/m 0 min 2 min 50 W/m 12,6 km/h (3 Bft)
20.02.2015 15:30 7,4 C 5,0 C 90 % 1006,6 hPa 0,0 l/m 0 min 2 min 45 W/m 16,7 km/h (3 Bft)
20.02.2015 15:32 7,4 C 5,0 C 90 % 1006,6 hPa 0,0 l/m 0 min 2 min 38 W/m 20,9 km/h (4 Bft)
20.02.2015 15:34 7,3 C 5,0 C 90 % 1006,6 hPa 0,0 l/m 0 min 2 min 35 W/m 41,8 km/h (6 Bft)
20.02.2015 15:36 7,3 C 5,0 C 91 % 1006,6 hPa 0,0 l/m 0 min 2 min 34 W/m 29,3 km/h (5 Bft)
20.02.2015 15:38 7,3 C 5,0 C 91 % 1006,5 hPa 0,0 l/m 0 min 2 min 30 W/m 27,2 km/h (4 Bft)
20.02.2015 15:40 7,2 C 5,0 C 91 % 1006,5 hPa 0,2 l/m 0 min 2 min 28 W/m 35,6 km/h (5 Bft)
20.02.2015 15:42 7,2 C 5,0 C 91 % 1006,5 hPa 0,0 l/m 0 min 2 min 30 W/m 16,7 km/h (3 Bft)
20.02.2015 15:44 7,2 C 5,0 C 90 % 1006,5 hPa 0,0 l/m 0 min 2 min 33 W/m 29,3 km/h (5 Bft)
20.02.2015 15:46 7,2 C 5,0 C 90 % 1006,4 hPa 0,0 l/m 0 min 2 min 35 W/m 27,2 km/h (4 Bft)
20.02.2015 15:48 7,2 C 5,0 C 90 % 1006,4 hPa 0,0 l/m 0 min 2 min 33 W/m 23,0 km/h (4 Bft)
20.02.2015 15:50 7,1 C 5,0 C 90 % 1006,4 hPa 0,0 l/m 0 min 2 min 35 W/m 29,3 km/h (5 Bft)
20.02.2015 15:52 7,1 C 5,0 C 90 % 1006,3 hPa 0,0 l/m 0 min 2 min 37 W/m 29,3 km/h (5 Bft)
20.02.2015 15:54 7,1 C 5,0 C 91 % 1006,4 hPa 0,0 l/m 0 min 2 min 39 W/m 31,4 km/h (5 Bft)
20.02.2015 15:56 7,1 C 5,0 C 91 % 1006,3 hPa 0,0 l/m 0 min 2 min 41 W/m 18,8 km/h (3 Bft)
20.02.2015 15:58 7,1 C 5,0 C 91 % 1006,3 hPa 0,2 l/m 0 min 2 min 39 W/m 12,6 km/h (3 Bft)
20.02.2015 16:00 7,0 C 5,0 C 91 % 1006,3 hPa 0,0 l/m 0 min 2 min 38 W/m 23,0 km/h (4 Bft)
20.02.2015 16:02 7,0 C 5,0 C 91 % 1006,3 hPa 0,0 l/m 0 min 2 min 35 W/m 25,1 km/h (4 Bft)
20.02.2015 16:04 7,0 C 5,0 C 91 % 1006,2 hPa 0,0 l/m 0 min 2 min 33 W/m 27,2 km/h (4 Bft)
20.02.2015 16:06 7,0 C 5,0 C 91 % 1006,2 hPa 0,0 l/m 0 min 2 min 31 W/m 25,1 km/h (4 Bft)
20.02.2015 16:08 6,9 C 5,0 C 91 % 1006,2 hPa 0,0 l/m 0 min 2 min 32 W/m 14,6 km/h (3 Bft)
20.02.2015 16:10 6,9 C 5,0 C 91 % 1006,2 hPa 0,2 l/m 0 min 2 min 29 W/m 18,8 km/h (3 Bft)
20.02.2015 16:12 6,9 C 5,0 C 91 % 1006,1 hPa 0,0 l/m 0 min 2 min 29 W/m 18,8 km/h (3 Bft)
20.02.2015 16:14 6,9 C 5,0 C 91 % 1006,1 hPa 0,0 l/m 0 min 2 min 30 W/m 23,0 km/h (4 Bft)
20.02.2015 16:16 6,9 C 5,0 C 91 % 1006,1 hPa 0,0 l/m 0 min 2 min 27 W/m 18,8 km/h (3 Bft)
20.02.2015 16:18 6,9 C 5,0 C 91 % 1006,1 hPa 0,0 l/m 0 min 2 min 25 W/m 18,8 km/h (3 Bft)
20.02.2015 16:20 6,9 C 5,0 C 91 % 1006,1 hPa 0,2 l/m 0 min 2 min 23 W/m 20,9 km/h (4 Bft)
20.02.2015 16:22 6,9 C 5,0 C 91 % 1006,1 hPa 0,0 l/m 0 min 2 min 22 W/m 20,9 km/h (4 Bft)
20.02.2015 16:24 6,8 C 4,4 C 91 % 1006,1 hPa 0,2 l/m 0 min 2 min 21 W/m 18,8 km/h (3 Bft)
20.02.2015 16:26 6,8 C 5,0 C 92 % 1006,1 hPa 0,0 l/m 0 min 2 min 20 W/m 16,7 km/h (3 Bft)
20.02.2015 16:28 6,8 C 5,0 C 92 % 1006,0 hPa 0,0 l/m 0 min 2 min 23 W/m 14,6 km/h (3 Bft)
20.02.2015 16:30 6,8 C 5,0 C 92 % 1006,0 hPa 0,0 l/m 0 min 2 min 25 W/m 12,6 km/h (3 Bft)
20.02.2015 16:32 6,8 C 5,0 C 92 % 1006,0 hPa 0,2 l/m 0 min 2 min 26 W/m 18,8 km/h (3 Bft)
20.02.2015 16:34 6,8 C 5,0 C 92 % 1005,9 hPa 0,0 l/m 0 min 2 min 26 W/m 18,8 km/h (3 Bft)
20.02.2015 16:36 6,8 C 5,0 C 92 % 1006,0 hPa 0,0 l/m 0 min 2 min 26 W/m 6,3 km/h (2 Bft)
20.02.2015 16:38 6,8 C 5,0 C 92 % 1005,9 hPa 0,2 l/m 0 min 2 min 25 W/m 14,6 km/h (3 Bft)
20.02.2015 16:40 6,7 C 5,0 C 92 % 1005,9 hPa 0,0 l/m 0 min 2 min 25 W/m 10,5 km/h (2 Bft)
20.02.2015 16:42 6,7 C 5,0 C 92 % 1005,9 hPa 0,0 l/m 0 min 2 min 22 W/m 10,5 km/h (2 Bft)
20.02.2015 16:44 6,7 C 5,0 C 92 % 1005,9 hPa 0,0 l/m 0 min 2 min 20 W/m 12,6 km/h (3 Bft)
20.02.2015 16:46 6,7 C 5,0 C 92 % 1005,8 hPa 0,0 l/m 0 min 2 min 19 W/m 10,5 km/h (2 Bft)
20.02.2015 16:48 6,7 C 5,0 C 93 % 1005,8 hPa 0,0 l/m 0 min 2 min 19 W/m 12,6 km/h (3 Bft)
20.02.2015 16:50 6,7 C 5,0 C 93 % 1005,7 hPa 0,0 l/m 0 min 2 min 19 W/m 12,6 km/h (3 Bft)
20.02.2015 16:52 6,7 C 5,0 C 93 % 1005,7 hPa 0,2 l/m 0 min 2 min 19 W/m 16,7 km/h (3 Bft)
20.02.2015 16:54 6,7 C 5,0 C 93 % 1005,7 hPa 0,0 l/m 0 min 2 min 20 W/m 14,6 km/h (3 Bft)
20.02.2015 16:56 6,7 C 5,0 C 93 % 1005,7 hPa 0,0 l/m 0 min 2 min 19 W/m 10,5 km/h (2 Bft)
20.02.2015 16:58 6,7 C 5,0 C 93 % 1005,6 hPa 0,0 l/m 0 min 2 min 19 W/m 10,5 km/h (2 Bft)
20.02.2015 17:00 6,6 C 5,0 C 93 % 1005,6 hPa 0,0 l/m 0 min 2 min 18 W/m 18,8 km/h (3 Bft)
20.02.2015 17:02 6,6 C 5,0 C 93 % 1005,5 hPa 0,0 l/m 0 min 2 min 19 W/m 14,6 km/h (3 Bft)
20.02.2015 17:04 6,6 C 5,0 C 93 % 1005,5 hPa 0,0 l/m 0 min 2 min 19 W/m 14,6 km/h (3 Bft)
20.02.2015 17:06 6,6 C 5,0 C 93 % 1005,4 hPa 0,0 l/m 0 min 2 min 19 W/m 18,8 km/h (3 Bft)
20.02.2015 17:08 6,6 C 5,0 C 93 % 1005,4 hPa 0,0 l/m 0 min 2 min 18 W/m 14,6 km/h (3 Bft)
20.02.2015 17:10 6,6 C 5,0 C 93 % 1005,2 hPa 0,0 l/m 0 min 2 min 17 W/m 10,5 km/h (2 Bft)
20.02.2015 17:12 6,6 C 5,0 C 93 % 1005,3 hPa 0,0 l/m 0 min 2 min 17 W/m 14,6 km/h (3 Bft)
20.02.2015 17:14 6,6 C 5,0 C 93 % 1005,2 hPa 0,0 l/m 0 min 2 min 16 W/m 12,6 km/h (3 Bft)
20.02.2015 17:16 6,6 C 5,0 C 93 % 1005,2 hPa 0,2 l/m 0 min 2 min 16 W/m 10,5 km/h (2 Bft)
20.02.2015 17:18 6,6 C 5,0 C 93 % 1005,2 hPa 0,0 l/m 0 min 2 min 16 W/m 12,6 km/h (3 Bft)
20.02.2015 17:20 6,6 C 5,0 C 94 % 1005,2 hPa 0,0 l/m 0 min 2 min 14 W/m 14,6 km/h (3 Bft)
20.02.2015 17:22 6,6 C 5,0 C 94 % 1005,1 hPa 0,0 l/m 0 min 2 min 13 W/m 18,8 km/h (3 Bft)
20.02.2015 17:24 6,6 C 5,0 C 94 % 1005,0 hPa 0,0 l/m 0 min 2 min 12 W/m 14,6 km/h (3 Bft)
20.02.2015 17:26 6,6 C 5,0 C 94 % 1005,0 hPa 0,0 l/m 0 min 2 min 11 W/m 14,6 km/h (3 Bft)
20.02.2015 17:28 6,6 C 4,4 C 94 % 1004,9 hPa 0,0 l/m 0 min 2 min 11 W/m 8,4 km/h (2 Bft)
20.02.2015 17:30 6,6 C 4,4 C 94 % 1004,8 hPa 0,0 l/m 0 min 2 min 10 W/m 14,6 km/h (3 Bft)
20.02.2015 17:32 6,5 C 4,4 C 94 % 1004,9 hPa 0,0 l/m 0 min 2 min 9 W/m 14,6 km/h (3 Bft)
20.02.2015 17:34 6,5 C 4,4 C 94 % 1004,8 hPa 0,0 l/m 0 min 2 min 8 W/m 14,6 km/h (3 Bft)
20.02.2015 17:36 6,5 C 4,4 C 94 % 1004,7 hPa 0,0 l/m 0 min 2 min 7 W/m 14,6 km/h (3 Bft)
20.02.2015 17:38 6,5 C 4,4 C 94 % 1004,7 hPa 0,0 l/m 0 min 2 min 7 W/m 14,6 km/h (3 Bft)
20.02.2015 17:40 6,5 C 4,4 C 94 % 1004,7 hPa 0,2 l/m 0 min 2 min 6 W/m 12,6 km/h (3 Bft)
20.02.2015 17:42 6,5 C 4,4 C 94 % 1004,7 hPa 0,0 l/m 0 min 2 min 5 W/m 12,6 km/h (3 Bft)
20.02.2015 17:44 6,5 C 4,4 C 94 % 1004,6 hPa 0,0 l/m 0 min 2 min 5 W/m 16,7 km/h (3 Bft)
20.02.2015 17:46 6,5 C 4,4 C 94 % 1004,6 hPa 0,0 l/m 0 min 2 min 5 W/m 14,6 km/h (3 Bft)
20.02.2015 17:48 6,5 C 4,4 C 94 % 1004,6 hPa 0,0 l/m 0 min 2 min 3 W/m 16,7 km/h (3 Bft)
20.02.2015 17:50 6,4 C 4,4 C 94 % 1004,6 hPa 0,0 l/m 0 min 2 min 0 W/m 10,5 km/h (2 Bft)
20.02.2015 17:52 6,4 C 4,4 C 94 % 1004,5 hPa 0,2 l/m 0 min 2 min 0 W/m 10,5 km/h (2 Bft)
20.02.2015 17:54 6,4 C 4,4 C 94 % 1004,5 hPa 0,0 l/m 0 min 2 min 0 W/m 12,6 km/h (3 Bft)
20.02.2015 17:56 6,4 C 4,4 C 94 % 1004,5 hPa 0,0 l/m 0 min 2 min 0 W/m 14,6 km/h (3 Bft)
20.02.2015 17:58 6,4 C 4,4 C 94 % 1004,4 hPa 0,0 l/m 0 min 2 min 0 W/m 18,8 km/h (3 Bft)
20.02.2015 18:00 6,4 C 4,4 C 94 % 1004,4 hPa 0,0 l/m 0 min 2 min 0 W/m 16,7 km/h (3 Bft)
20.02.2015 18:02 6,4 C 4,4 C 94 % 1004,4 hPa 0,0 l/m 0 min 2 min 0 W/m 10,5 km/h (2 Bft)
20.02.2015 18:06 6,4 C 4,4 C 94 % 1004,3 hPa 0,0 l/m 0 min 2 min 0 W/m 18,8 km/h (3 Bft)
20.02.2015 18:08 6,4 C 4,4 C 94 % 1004,3 hPa 0,0 l/m 0 min 2 min 0 W/m 16,7 km/h (3 Bft)
20.02.2015 18:10 6,4 C 4,4 C 95 % 1004,3 hPa 0,2 l/m 0 min 2 min 0 W/m 16,7 km/h (3 Bft)
20.02.2015 18:12 6,4 C 4,4 C 95 % 1004,3 hPa 0,0 l/m 0 min 2 min 0 W/m 18,8 km/h (3 Bft)
20.02.2015 18:14 6,4 C 4,4 C 95 % 1004,3 hPa 0,0 l/m 0 min 2 min 0 W/m 14,6 km/h (3 Bft)
20.02.2015 18:16 6,4 C 4,4 C 95 % 1004,2 hPa 0,0 l/m 0 min 2 min 0 W/m 14,6 km/h (3 Bft)
20.02.2015 18:18 6,4 C 4,4 C 95 % 1004,2 hPa 0,0 l/m 0 min 2 min 0 W/m 18,8 km/h (3 Bft)
20.02.2015 18:20 6,4 C 4,4 C 95 % 1004,2 hPa 0,0 l/m 0 min 2 min 0 W/m 16,7 km/h (3 Bft)
20.02.2015 18:22 6,4 C 4,4 C 95 % 1004,2 hPa 0,2 l/m 0 min 2 min 0 W/m 23,0 km/h (4 Bft)
20.02.2015 18:24 6,4 C 4,4 C 95 % 1004,1 hPa 0,0 l/m 0 min 2 min 0 W/m 18,8 km/h (3 Bft)
20.02.2015 18:26 6,4 C 4,4 C 95 % 1004,1 hPa 0,0 l/m 0 min 2 min 0 W/m 14,6 km/h (3 Bft)
20.02.2015 18:28 6,4 C 4,4 C 95 % 1004,1 hPa 0,0 l/m 0 min 2 min 0 W/m 14,6 km/h (3 Bft)
20.02.2015 18:30 6,4 C 4,4 C 95 % 1004,1 hPa 0,0 l/m 0 min 2 min 0 W/m 12,6 km/h (3 Bft)
20.02.2015 18:32 6,4 C 4,4 C 95 % 1004,1 hPa 0,0 l/m 0 min 2 min 0 W/m 14,6 km/h (3 Bft)
20.02.2015 18:34 6,4 C 4,4 C 95 % 1004,0 hPa 0,0 l/m 0 min 2 min 0 W/m 14,6 km/h (3 Bft)
20.02.2015 18:36 6,4 C 4,4 C 95 % 1004,0 hPa 0,0 l/m 0 min 2 min 0 W/m 23,0 km/h (4 Bft)
20.02.2015 18:38 6,4 C 4,4 C 95 % 1004,1 hPa 0,0 l/m 0 min 2 min 0 W/m 16,7 km/h (3 Bft)
20.02.2015 18:40 6,4 C 4,4 C 95 % 1004,0 hPa 0,0 l/m 0 min 2 min 0 W/m 14,6 km/h (3 Bft)
20.02.2015 18:42 6,4 C 4,4 C 95 % 1003,9 hPa 0,0 l/m 0 min 2 min 0 W/m 16,7 km/h (3 Bft)
20.02.2015 18:44 6,4 C 4,4 C 95 % 1003,9 hPa 0,0 l/m 0 min 2 min 0 W/m 16,7 km/h (3 Bft)
20.02.2015 18:46 6,4 C 4,4 C 95 % 1003,9 hPa 0,0 l/m 0 min 2 min 0 W/m 18,8 km/h (3 Bft)
20.02.2015 18:48 6,4 C 4,4 C 95 % 1003,9 hPa 0,0 l/m 0 min 2 min 0 W/m 18,8 km/h (3 Bft)
20.02.2015 18:50 6,4 C 4,4 C 95 % 1003,8 hPa 0,0 l/m 0 min 2 min 0 W/m 14,6 km/h (3 Bft)
20.02.2015 18:52 6,4 C 4,4 C 95 % 1003,7 hPa 0,2 l/m 0 min 2 min 0 W/m 18,8 km/h (3 Bft)
20.02.2015 18:54 6,4 C 4,4 C 95 % 1003,7 hPa 0,0 l/m 0 min 2 min 0 W/m 18,8 km/h (3 Bft)
20.02.2015 18:56 6,4 C 4,4 C 95 % 1003,6 hPa 0,0 l/m 0 min 2 min 0 W/m 12,6 km/h (3 Bft)
20.02.2015 18:58 6,4 C 4,4 C 95 % 1003,6 hPa 0,0 l/m 0 min 2 min 0 W/m 18,8 km/h (3 Bft)
20.02.2015 19:00 6,4 C 4,4 C 95 % 1003,6 hPa 0,0 l/m 0 min 0 min 0 W/m 14,6 km/h (3 Bft)
20.02.2015 19:02 6,4 C 4,4 C 95 % 1003,6 hPa 0,0 l/m 0 min 0 min 0 W/m 8,4 km/h (2 Bft)
20.02.2015 19:04 6,4 C 4,4 C 95 % 1003,5 hPa 0,0 l/m 0 min 0 min 0 W/m 14,6 km/h (3 Bft)
20.02.2015 19:06 6,4 C 4,4 C 95 % 1003,5 hPa 0,0 l/m 0 min 2 min 0 W/m 14,6 km/h (3 Bft)
20.02.2015 19:08 6,3 C 4,4 C 95 % 1003,4 hPa 0,0 l/m 0 min 2 min 0 W/m 12,6 km/h (3 Bft)
20.02.2015 19:10 6,3 C 4,4 C 95 % 1003,5 hPa 0,0 l/m 0 min 2 min 0 W/m 6,3 km/h (2 Bft)
20.02.2015 19:12 6,4 C 4,4 C 95 % 1003,4 hPa 0,0 l/m 0 min 2 min 0 W/m 14,6 km/h (3 Bft)
20.02.2015 19:14 6,4 C 4,4 C 95 % 1003,4 hPa 0,0 l/m 0 min 2 min 0 W/m 14,6 km/h (3 Bft)
20.02.2015 19:16 6,4 C 4,4 C 95 % 1003,3 hPa 0,0 l/m 0 min 2 min 0 W/m 14,6 km/h (3 Bft)
20.02.2015 19:18 6,3 C 4,4 C 95 % 1003,4 hPa 0,0 l/m 0 min 2 min 0 W/m 12,6 km/h (3 Bft)
20.02.2015 19:20 6,3 C 4,4 C 95 % 1003,3 hPa 0,0 l/m 0 min 2 min 0 W/m 16,7 km/h (3 Bft)
20.02.2015 19:22 6,3 C 4,4 C 95 % 1003,3 hPa 0,2 l/m 0 min 2 min 0 W/m 12,6 km/h (3 Bft)
20.02.2015 19:24 6,3 C 4,4 C 95 % 1003,2 hPa 0,0 l/m 0 min 2 min 0 W/m 8,4 km/h (2 Bft)
20.02.2015 19:26 6,3 C 4,4 C 95 % 1003,2 hPa 0,0 l/m 0 min 2 min 0 W/m 14,6 km/h (3 Bft)
20.02.2015 19:28 6,3 C 4,4 C 95 % 1003,1 hPa 0,0 l/m 0 min 2 min 0 W/m 18,8 km/h (3 Bft)
20.02.2015 19:30 6,3 C 4,4 C 95 % 1003,1 hPa 0,0 l/m 0 min 2 min 0 W/m 8,4 km/h (2 Bft)
20.02.2015 19:32 6,3 C 4,4 C 95 % 1003,0 hPa 0,0 l/m 0 min 2 min 0 W/m 12,6 km/h (3 Bft)
20.02.2015 19:34 6,3 C 4,4 C 95 % 1003,0 hPa 0,0 l/m 0 min 2 min 0 W/m 12,6 km/h (3 Bft)
20.02.2015 19:36 6,3 C 4,4 C 95 % 1002,9 hPa 0,0 l/m 0 min 2 min 0 W/m 14,6 km/h (3 Bft)
20.02.2015 19:38 6,3 C 4,4 C 95 % 1002,9 hPa 0,0 l/m 0 min 2 min 0 W/m 12,6 km/h (3 Bft)
20.02.2015 19:40 6,3 C 4,4 C 95 % 1002,8 hPa 0,0 l/m 0 min 2 min 0 W/m 20,9 km/h (4 Bft)
20.02.2015 19:42 6,3 C 4,4 C 95 % 1002,7 hPa 0,0 l/m 0 min 2 min 0 W/m 14,6 km/h (3 Bft)
20.02.2015 19:44 6,3 C 4,4 C 95 % 1002,7 hPa 0,2 l/m 0 min 2 min 0 W/m 14,6 km/h (3 Bft)
20.02.2015 19:46 6,3 C 4,4 C 95 % 1002,7 hPa 0,0 l/m 0 min 2 min 0 W/m 14,6 km/h (3 Bft)
20.02.2015 19:48 6,3 C 4,4 C 95 % 1002,7 hPa 0,0 l/m 0 min 2 min 0 W/m 12,6 km/h (3 Bft)
20.02.2015 19:50 6,3 C 4,4 C 95 % 1002,7 hPa 0,0 l/m 0 min 2 min 0 W/m 14,6 km/h (3 Bft)
20.02.2015 19:52 6,3 C 4,4 C 95 % 1002,6 hPa 0,0 l/m 0 min 2 min 0 W/m 16,7 km/h (3 Bft)
20.02.2015 19:54 6,3 C 4,4 C 95 % 1002,6 hPa 0,2 l/m 0 min 2 min 0 W/m 16,7 km/h (3 Bft)
20.02.2015 19:56 6,3 C 4,4 C 95 % 1002,6 hPa 0,0 l/m 0 min 2 min 0 W/m 18,8 km/h (3 Bft)
20.02.2015 19:58 6,3 C 4,4 C 95 % 1002,5 hPa 0,0 l/m 0 min 2 min 0 W/m 23,0 km/h (4 Bft)
20.02.2015 20:00 6,3 C 4,4 C 95 % 1002,5 hPa 0,0 l/m 0 min 2 min 0 W/m 10,5 km/h (2 Bft)
20.02.2015 20:02 6,3 C 4,4 C 95 % 1002,5 hPa 0,0 l/m 0 min 2 min 0 W/m 14,6 km/h (3 Bft)
20.02.2015 20:04 6,3 C 4,4 C 95 % 1002,4 hPa 0,0 l/m 0 min 2 min 0 W/m 16,7 km/h (3 Bft)
20.02.2015 20:06 6,3 C 4,4 C 95 % 1002,4 hPa 0,0 l/m 0 min 2 min 0 W/m 14,6 km/h (3 Bft)
20.02.2015 20:08 6,3 C 4,4 C 95 % 1002,4 hPa 0,0 l/m 0 min 2 min 0 W/m 20,9 km/h (4 Bft)
20.02.2015 20:10 6,3 C 4,4 C 95 % 1002,3 hPa 0,2 l/m 0 min 2 min 0 W/m 14,6 km/h (3 Bft)
20.02.2015 20:12 6,3 C 4,4 C 95 % 1002,3 hPa 0,0 l/m 0 min 2 min 0 W/m 16,7 km/h (3 Bft)
20.02.2015 20:14 6,3 C 4,4 C 95 % 1002,3 hPa 0,0 l/m 0 min 2 min 0 W/m 14,6 km/h (3 Bft)
20.02.2015 20:16 6,3 C 4,4 C 95 % 1002,2 hPa 0,0 l/m 0 min 2 min 0 W/m 14,6 km/h (3 Bft)
20.02.2015 20:18 6,3 C 4,4 C 95 % 1002,1 hPa 0,0 l/m 0 min 2 min 0 W/m 14,6 km/h (3 Bft)
20.02.2015 20:20 6,3 C 4,4 C 95 % 1002,2 hPa 0,0 l/m 0 min 2 min 0 W/m 14,6 km/h (3 Bft)
20.02.2015 20:22 6,3 C 4,4 C 95 % 1002,1 hPa 0,0 l/m 0 min 2 min 0 W/m 18,8 km/h (3 Bft)
20.02.2015 20:24 6,3 C 4,4 C 95 % 1002,1 hPa 0,0 l/m 0 min 2 min 0 W/m 16,7 km/h (3 Bft)
20.02.2015 20:26 6,3 C 4,4 C 95 % 1002,0 hPa 0,0 l/m 0 min 2 min 0 W/m 18,8 km/h (3 Bft)
20.02.2015 20:28 6,3 C 4,4 C 95 % 1001,9 hPa 0,0 l/m 0 min 2 min 0 W/m 14,6 km/h (3 Bft)
20.02.2015 20:30 6,3 C 4,4 C 95 % 1001,9 hPa 0,0 l/m 0 min 2 min 0 W/m 14,6 km/h (3 Bft)
20.02.2015 20:32 6,3 C 4,4 C 95 % 1001,9 hPa 0,0 l/m 0 min 2 min 0 W/m 23,0 km/h (4 Bft)
20.02.2015 20:34 6,3 C 4,4 C 95 % 1001,9 hPa 0,2 l/m 0 min 2 min 0 W/m 18,8 km/h (3 Bft)
20.02.2015 20:36 6,3 C 4,4 C 95 % 1001,8 hPa 0,0 l/m 0 min 2 min 0 W/m 18,8 km/h (3 Bft)
20.02.2015 20:38 6,3 C 4,4 C 95 % 1001,8 hPa 0,0 l/m 0 min 2 min 0 W/m 20,9 km/h (4 Bft)
20.02.2015 20:40 6,3 C 4,4 C 95 % 1001,7 hPa 0,0 l/m 0 min 2 min 0 W/m 16,7 km/h (3 Bft)
20.02.2015 20:42 6,3 C 4,4 C 95 % 1001,7 hPa 0,0 l/m 0 min 2 min 0 W/m 25,1 km/h (4 Bft)
20.02.2015 20:44 6,3 C 4,4 C 95 % 1001,7 hPa 0,0 l/m 0 min 2 min 0 W/m 16,7 km/h (3 Bft)
20.02.2015 20:46 6,3 C 4,4 C 95 % 1001,7 hPa 0,0 l/m 0 min 2 min 0 W/m 23,0 km/h (4 Bft)
20.02.2015 20:48 6,3 C 4,4 C 95 % 1001,7 hPa 0,0 l/m 0 min 2 min 0 W/m 23,0 km/h (4 Bft)
20.02.2015 20:50 6,3 C 4,4 C 95 % 1001,6 hPa 0,0 l/m 0 min 2 min 0 W/m 20,9 km/h (4 Bft)
20.02.2015 20:52 6,3 C 4,4 C 95 % 1001,5 hPa 0,0 l/m 0 min 2 min 0 W/m 16,7 km/h (3 Bft)
20.02.2015 20:54 6,3 C 4,4 C 95 % 1001,5 hPa 0,0 l/m 0 min 2 min 0 W/m 16,7 km/h (3 Bft)
20.02.2015 20:56 6,3 C 4,4 C 95 % 1001,4 hPa 0,0 l/m 0 min 2 min 0 W/m 23,0 km/h (4 Bft)
20.02.2015 20:58 6,3 C 4,4 C 95 % 1001,5 hPa 0,0 l/m 0 min 2 min 0 W/m 33,5 km/h (5 Bft)
20.02.2015 21:00 6,3 C 4,4 C 95 % 1001,6 hPa 0,0 l/m 0 min 2 min 0 W/m 23,0 km/h (4 Bft)
20.02.2015 21:02 6,3 C 4,4 C 95 % 1001,5 hPa 0,0 l/m 0 min 2 min 0 W/m 23,0 km/h (4 Bft)
20.02.2015 21:04 6,3 C 4,4 C 95 % 1001,4 hPa 0,0 l/m 0 min 2 min 0 W/m 25,1 km/h (4 Bft)
20.02.2015 21:06 6,3 C 4,4 C 95 % 1001,3 hPa 0,0 l/m 0 min 2 min 0 W/m 20,9 km/h (4 Bft)
20.02.2015 21:08 6,3 C 4,4 C 95 % 1001,2 hPa 0,0 l/m 0 min 2 min 0 W/m 20,9 km/h (4 Bft)
20.02.2015 21:10 6,3 C 4,4 C 94 % 1001,2 hPa 0,0 l/m 0 min 0 min 0 W/m 20,9 km/h (4 Bft)
20.02.2015 21:12 6,3 C 4,4 C 94 % 1001,1 hPa 0,0 l/m 0 min 2 min 0 W/m 27,2 km/h (4 Bft)
20.02.2015 21:14 6,3 C 4,4 C 94 % 1001,1 hPa 0,0 l/m 0 min 0 min 0 W/m 25,1 km/h (4 Bft)
20.02.2015 21:16 6,3 C 4,4 C 95 % 1001,1 hPa 0,0 l/m 0 min 2 min 0 W/m 29,3 km/h (5 Bft)
20.02.2015 21:18 6,3 C 4,4 C 94 % 1001,1 hPa 0,0 l/m 0 min 2 min 0 W/m 23,0 km/h (4 Bft)
20.02.2015 21:20 6,3 C 4,4 C 94 % 1001,0 hPa 0,0 l/m 0 min 2 min 0 W/m 20,9 km/h (4 Bft)
20.02.2015 21:22 6,3 C 4,4 C 94 % 1001,0 hPa 0,0 l/m 0 min 2 min 0 W/m 16,7 km/h (3 Bft)
20.02.2015 21:24 6,3 C 4,4 C 94 % 1000,9 hPa 0,0 l/m 0 min 2 min 0 W/m 25,1 km/h (4 Bft)
20.02.2015 21:26 6,4 C 4,4 C 94 % 1000,9 hPa 0,0 l/m 0 min 2 min 0 W/m 16,7 km/h (3 Bft)
20.02.2015 21:28 6,4 C 4,4 C 94 % 1000,9 hPa 0,2 l/m 0 min 2 min 0 W/m 20,9 km/h (4 Bft)
20.02.2015 21:30 6,4 C 4,4 C 94 % 1000,8 hPa 0,0 l/m 0 min 2 min 0 W/m 16,7 km/h (3 Bft)
20.02.2015 21:32 6,3 C 4,4 C 94 % 1000,8 hPa 0,0 l/m 0 min 2 min 0 W/m 18,8 km/h (3 Bft)
20.02.2015 21:34 6,4 C 4,4 C 94 % 1000,7 hPa 0,0 l/m 0 min 2 min 0 W/m 20,9 km/h (4 Bft)
20.02.2015 21:36 6,3 C 4,4 C 94 % 1000,7 hPa 0,0 l/m 0 min 2 min 0 W/m 27,2 km/h (4 Bft)
20.02.2015 21:38 6,3 C 4,4 C 94 % 1000,8 hPa 0,0 l/m 0 min 2 min 0 W/m 25,1 km/h (4 Bft)
20.02.2015 21:40 6,3 C 4,4 C 94 % 1000,6 hPa 0,0 l/m 0 min 2 min 0 W/m 27,2 km/h (4 Bft)
20.02.2015 21:42 6,3 C 4,4 C 94 % 1000,7 hPa 0,0 l/m 0 min 2 min 0 W/m 27,2 km/h (4 Bft)
20.02.2015 21:44 6,3 C 4,4 C 94 % 1000,6 hPa 0,0 l/m 0 min 2 min 0 W/m 14,6 km/h (3 Bft)
20.02.2015 21:46 6,3 C 4,4 C 94 % 1000,6 hPa 0,0 l/m 0 min 2 min 0 W/m 20,9 km/h (4 Bft)
20.02.2015 21:48 6,3 C 4,4 C 94 % 1000,5 hPa 0,2 l/m 0 min 2 min 0 W/m 16,7 km/h (3 Bft)
20.02.2015 21:50 6,3 C 4,4 C 94 % 1000,5 hPa 0,0 l/m 0 min 2 min 0 W/m 25,1 km/h (4 Bft)
20.02.2015 21:52 6,3 C 4,4 C 94 % 1000,4 hPa 0,0 l/m 0 min 2 min 0 W/m 10,5 km/h (2 Bft)
20.02.2015 21:54 6,3 C 4,4 C 94 % 1000,4 hPa 0,0 l/m 0 min 2 min 0 W/m 23,0 km/h (4 Bft)
20.02.2015 21:56 6,3 C 4,4 C 94 % 1000,5 hPa 0,0 l/m 0 min 2 min 0 W/m 16,7 km/h (3 Bft)
20.02.2015 21:58 6,3 C 4,4 C 93 % 1000,5 hPa 0,0 l/m 0 min 2 min 0 W/m 20,9 km/h (4 Bft)
20.02.2015 22:00 6,3 C 4,4 C 94 % 1000,3 hPa 0,0 l/m 0 min 2 min 0 W/m 18,8 km/h (3 Bft)
20.02.2015 22:02 6,3 C 4,4 C 94 % 1000,3 hPa 0,0 l/m 0 min 2 min 0 W/m 20,9 km/h (4 Bft)
20.02.2015 22:04 6,2 C 4,4 C 94 % 1000,3 hPa 0,0 l/m 0 min 2 min 0 W/m 20,9 km/h (4 Bft)
20.02.2015 22:06 6,2 C 4,4 C 94 % 1000,3 hPa 0,0 l/m 0 min 2 min 0 W/m 16,7 km/h (3 Bft)
20.02.2015 22:08 6,2 C 4,4 C 94 % 1000,3 hPa 0,0 l/m 0 min 2 min 0 W/m 23,0 km/h (4 Bft)
20.02.2015 22:10 6,2 C 4,4 C 94 % 1000,2 hPa 0,0 l/m 0 min 2 min 0 W/m 18,8 km/h (3 Bft)
20.02.2015 22:12 6,2 C 4,4 C 94 % 1000,2 hPa 0,0 l/m 0 min 2 min 0 W/m 18,8 km/h (3 Bft)
20.02.2015 22:14 6,2 C 4,4 C 94 % 1000,2 hPa 0,0 l/m 0 min 2 min 0 W/m 25,1 km/h (4 Bft)
20.02.2015 22:16 6,2 C 4,4 C 94 % 1000,2 hPa 0,0 l/m 0 min 2 min 0 W/m 20,9 km/h (4 Bft)
20.02.2015 22:18 6,2 C 4,4 C 94 % 1000,2 hPa 0,0 l/m 0 min 2 min 0 W/m 20,9 km/h (4 Bft)
20.02.2015 22:20 6,2 C 4,4 C 94 % 1000,1 hPa 0,2 l/m 0 min 2 min 0 W/m 23,0 km/h (4 Bft)
20.02.2015 22:22 6,2 C 4,4 C 94 % 1000,0 hPa 0,0 l/m 0 min 2 min 0 W/m 20,9 km/h (4 Bft)
20.02.2015 22:24 6,2 C 3,9 C 94 % 1000,0 hPa 0,0 l/m 0 min 2 min 0 W/m 16,7 km/h (3 Bft)
20.02.2015 22:26 6,2 C 3,9 C 93 % 999,9 hPa 0,0 l/m 0 min 2 min 0 W/m 20,9 km/h (4 Bft)
20.02.2015 22:28 6,2 C 3,9 C 93 % 999,8 hPa 0,0 l/m 0 min 2 min 0 W/m 35,6 km/h (5 Bft)
20.02.2015 22:30 6,1 C 3,9 C 93 % 999,8 hPa 0,0 l/m 0 min 2 min 0 W/m 27,2 km/h (4 Bft)
20.02.2015 22:32 6,1 C 3,9 C 93 % 999,8 hPa 0,0 l/m 0 min 2 min 0 W/m 29,3 km/h (5 Bft)
20.02.2015 22:34 6,1 C 3,9 C 93 % 999,8 hPa 0,0 l/m 0 min 2 min 0 W/m 23,0 km/h (4 Bft)
20.02.2015 22:36 6,1 C 3,9 C 93 % 999,8 hPa 0,0 l/m 0 min 2 min 0 W/m 23,0 km/h (4 Bft)
20.02.2015 22:38 6,1 C 3,9 C 93 % 999,7 hPa 0,0 l/m 0 min 2 min 0 W/m 16,7 km/h (3 Bft)
20.02.2015 22:40 6,1 C 3,9 C 93 % 999,6 hPa 0,0 l/m 0 min 2 min 0 W/m 35,6 km/h (5 Bft)
20.02.2015 22:42 6,1 C 3,9 C 93 % 999,6 hPa 0,0 l/m 0 min 2 min 0 W/m 16,7 km/h (3 Bft)
20.02.2015 22:44 6,1 C 3,9 C 93 % 999,5 hPa 0,0 l/m 0 min 2 min 0 W/m 20,9 km/h (4 Bft)
20.02.2015 22:46 6,1 C 3,9 C 93 % 999,6 hPa 0,0 l/m 0 min 2 min 0 W/m 31,4 km/h (5 Bft)
20.02.2015 22:48 6,1 C 3,9 C 93 % 999,5 hPa 0,0 l/m 0 min 2 min 0 W/m 23,0 km/h (4 Bft)
20.02.2015 22:50 6,1 C 3,9 C 93 % 999,5 hPa 0,2 l/m 0 min 2 min 0 W/m 23,0 km/h (4 Bft)
20.02.2015 22:52 6,1 C 3,9 C 93 % 999,3 hPa 0,0 l/m 0 min 2 min 0 W/m 20,9 km/h (4 Bft)
20.02.2015 22:54 6,1 C 3,9 C 93 % 999,2 hPa 0,0 l/m 0 min 2 min 0 W/m 29,3 km/h (5 Bft)
20.02.2015 22:56 6,1 C 3,9 C 93 % 999,2 hPa 0,0 l/m 0 min 0 min 0 W/m 29,3 km/h (5 Bft)
20.02.2015 22:58 6,1 C 3,9 C 93 % 999,1 hPa 0,0 l/m 0 min 2 min 0 W/m 29,3 km/h (5 Bft)
20.02.2015 23:00 6,1 C 3,9 C 93 % 999,1 hPa 0,0 l/m 0 min 2 min 0 W/m 37,7 km/h (5 Bft)
20.02.2015 23:02 6,1 C 3,9 C 93 % 999,0 hPa 0,0 l/m 0 min 2 min 0 W/m 27,2 km/h (4 Bft)
20.02.2015 23:04 6,1 C 3,9 C 93 % 999,0 hPa 0,0 l/m 0 min 0 min 0 W/m 25,1 km/h (4 Bft)
20.02.2015 23:06 6,1 C 3,9 C 93 % 999,0 hPa 0,0 l/m 0 min 2 min 0 W/m 23,0 km/h (4 Bft)
20.02.2015 23:08 6,1 C 3,9 C 93 % 999,0 hPa 0,0 l/m 0 min 2 min 0 W/m 20,9 km/h (4 Bft)
20.02.2015 23:10 6,1 C 3,9 C 93 % 999,0 hPa 0,0 l/m 0 min 0 min 0 W/m 16,7 km/h (3 Bft)
20.02.2015 23:12 6,1 C 3,9 C 93 % 999,0 hPa 0,0 l/m 0 min 0 min 0 W/m 29,3 km/h (5 Bft)
20.02.2015 23:14 6,1 C 3,9 C 93 % 998,8 hPa 0,0 l/m 0 min 0 min 0 W/m 23,0 km/h (4 Bft)
20.02.2015 23:16 6,1 C 3,9 C 93 % 998,9 hPa 0,0 l/m 0 min 0 min 0 W/m 20,9 km/h (4 Bft)
20.02.2015 23:18 6,1 C 3,9 C 93 % 998,8 hPa 0,0 l/m 0 min 0 min 0 W/m 20,9 km/h (4 Bft)
20.02.2015 23:20 6,1 C 3,9 C 93 % 998,8 hPa 0,0 l/m 0 min 2 min 0 W/m 23,0 km/h (4 Bft)
20.02.2015 23:22 6,1 C 3,9 C 93 % 998,8 hPa 0,0 l/m 0 min 2 min 0 W/m 29,3 km/h (5 Bft)
20.02.2015 23:24 6,1 C 3,9 C 93 % 998,7 hPa 0,0 l/m 0 min 0 min 0 W/m 29,3 km/h (5 Bft)
20.02.2015 23:26 6,1 C 3,9 C 93 % 998,7 hPa 0,0 l/m 0 min 2 min 0 W/m 25,1 km/h (4 Bft)
20.02.2015 23:28 6,1 C 3,9 C 93 % 998,7 hPa 0,0 l/m 0 min 2 min 0 W/m 23,0 km/h (4 Bft)
20.02.2015 23:30 6,1 C 3,9 C 93 % 998,6 hPa 0,0 l/m 0 min 2 min 0 W/m 18,8 km/h (3 Bft)
20.02.2015 23:32 6,1 C 3,9 C 93 % 998,5 hPa 0,0 l/m 0 min 2 min 0 W/m 27,2 km/h (4 Bft)
20.02.2015 23:34 6,1 C 3,9 C 93 % 998,5 hPa 0,0 l/m 0 min 2 min 0 W/m 18,8 km/h (3 Bft)
20.02.2015 23:36 6,1 C 3,9 C 92 % 998,5 hPa 0,0 l/m 0 min 2 min 0 W/m 23,0 km/h (4 Bft)
20.02.2015 23:38 6,1 C 3,9 C 92 % 998,4 hPa 0,0 l/m 0 min 2 min 0 W/m 23,0 km/h (4 Bft)
20.02.2015 23:40 6,1 C 3,9 C 92 % 998,4 hPa 0,0 l/m 0 min 2 min 0 W/m 29,3 km/h (5 Bft)
20.02.2015 23:42 6,1 C 3,9 C 92 % 998,3 hPa 0,2 l/m 0 min 2 min 0 W/m 33,5 km/h (5 Bft)
20.02.2015 23:44 6,1 C 3,9 C 92 % 998,4 hPa 0,0 l/m 0 min 2 min 0 W/m 27,2 km/h (4 Bft)
20.02.2015 23:46 6,1 C 3,9 C 92 % 998,2 hPa 0,0 l/m 0 min 2 min 0 W/m 16,7 km/h (3 Bft)
20.02.2015 23:48 6,1 C 3,9 C 92 % 998,2 hPa 0,0 l/m 0 min 2 min 0 W/m 25,1 km/h (4 Bft)
20.02.2015 23:50 6,1 C 3,9 C 92 % 998,1 hPa 0,0 l/m 0 min 2 min 0 W/m 23,0 km/h (4 Bft)
20.02.2015 23:52 6,1 C 3,9 C 92 % 998,2 hPa 0,0 l/m 0 min 2 min 0 W/m 29,3 km/h (5 Bft)
20.02.2015 23:54 6,1 C 3,9 C 92 % 998,0 hPa 0,0 l/m 0 min 2 min 0 W/m 23,0 km/h (4 Bft)
20.02.2015 23:56 6,1 C 3,9 C 92 % 998,0 hPa 0,0 l/m 0 min 2 min 0 W/m 18,8 km/h (3 Bft)
20.02.2015 23:58 6,1 C 3,9 C 92 % 997,9 hPa 0,0 l/m 0 min 2 min 0 W/m 16,7 km/h (3 Bft)
_ Min-Zeit 00:26 00:00 04:22 23:58 - - - - 16:36
Minimum _ 1,3 C 0,6 C 82 % 997,9 hPa - - - - 6,3 km/h (2 Bft)
_ Max-Zeit 15:14 13:08 18:10 00:00 08:42 09:08 07:46 12:26 15:34
Maximum _ 7,4 C 6,7 C 95 % 1020,1 hPa 0,2 l/m 2 min 2 min 149 W/m 41,8 km/h
SW (6 Bft)
Durchschnitt _ 5,3 C 3,8 C 89 % 1009,5 hPa #5,4 l/m #4 min. #10:06 h 56 W/m 19,7 km/h (3 Bft)
© 2015 W. Hausmann